ECMWFFLT1_850_spd_057.txt.gz
Wind_Speed
10 10 10 10 10 10 10 9 9 9 8 7 6 5 5 5 5 4 4 5 4 4 4 4 4 5 5 5 4 3 4 5 4 4 4 4 5 6 6 5 4 3 2 1 4 5 4 6 7 4 5 4 3 3 4 6 7 8 9 9 11 13 11
10 10 10 10 11 11 11 10 9 9 9 8 8 7 7 6 6 5 5 6 6 5 4 4 5 5 4 4 4 4 5 6 6 6 6 6 7 8 7 6 6 4 3 2 2 4 4 7 9 7 7 5 3 4 7 8 9 10 10 11 13 13 12
11 10 10 11 12 12 12 11 10 8 8 9 9 9 8 7 7 6 7 9 8 7 7 6 6 5 4 3 4 4 5 6 7 7 8 8 9 9 8 8 8 7 5 4 3 4 5 7 9 9 7 5 4 7 10 10 11 12 13 13 14 15 14
11 11 11 12 12 12 12 11 10 10 9 9 10 10 9 9 9 9 9 9 10 9 8 8 8 8 7 7 8 7 7 9 9 9 9 9 10 9 8 8 8 8 7 7 6 5 5 8 10 9 7 7 6 8 11 12 11 12 13 13 14 14 14
12 12 13 13 13 12 12 12 11 12 11 11 10 11 11 10 10 10 9 9 10 10 10 9 9 9 9 9 10 10 9 9 10 9 8 9 9 9 9 9 9 8 7 7 7 5 5 7 8 8 8 8 8 9 11 12 11 11 12 12 13 13 13
13 13 13 14 14 12 12 13 13 13 12 12 11 11 11 9 9 9 9 9 10 11 11 11 10 10 9 9 9 10 9 9 9 9 8 8 9 9 9 9 9 9 9 8 7 7 7 7 8 8 8 8 9 9 9 10 10 11 11 11 11 11 11
13 13 13 14 13 13 13 14 14 13 13 13 12 11 10 10 10 10 10 11 11 11 12 12 12 11 10 9 9 10 10 9 10 9 9 9 8 9 10 10 9 9 9 9 7 7 6 6 7 7 8 7 8 9 9 9 8 9 10 10 9 9 8
14 12 12 13 13 14 15 15 15 15 14 14 14 13 13 12 13 12 12 13 13 13 14 13 13 13 12 11 11 12 11 11 12 11 11 11 10 10 11 11 9 8 9 8 7 7 7 6 6 7 7 7 7 8 8 7 8 8 8 8 8 8 6
15 12 11 13 14 15 16 16 16 15 15 16 16 16 16 15 14 14 13 14 14 14 15 15 14 14 14 13 13 13 12 11 12 12 12 12 13 13 13 13 10 9 9 8 7 8 7 7 6 6 4 4 7 7 6 5 6 7 7 6 7 7 6
16 13 12 13 15 17 17 17 17 17 18 19 19 19 18 17 16 14 14 14 14 14 14 14 13 13 13 12 12 12 12 11 12 12 12 12 13 13 13 12 11 10 10 9 8 8 8 7 6 4 3 2 3 4 5 6 6 5 5 5 6 6 5
17 13 13 14 15 17 18 19 19 19 20 21 21 20 19 18 17 15 14 13 13 12 12 11 10 10 10 9 9 9 9 10 10 9 10 10 10 11 11 11 10 10 12 11 10 10 9 8 6 4 4 3 3 3 3 7 7 4 3 4 5 5 4
17 14 14 15 15 17 18 19 21 21 22 22 22 21 20 19 17 15 13 12 11 10 9 9 8 8 7 7 6 6 6 7 6 6 7 7 7 8 8 9 8 9 10 10 9 10 9 8 6 5 5 4 4 5 4 5 6 5 3 2 3 3 2
17 15 15 15 15 17 18 20 21 23 23 23 22 21 20 18 16 14 12 10 9 8 8 8 7 7 7 6 5 4 5 6 5 4 4 4 5 5 5 6 5 6 7 6 6 8 7 7 7 6 5 4 4 5 4 4 6 6 4 3 2 2 2
16 16 15 15 16 17 18 20 21 23 23 22 22 21 18 16 15 13 11 9 8 7 7 7 7 7 6 6 6 5 6 6 4 3 3 3 4 3 3 4 2 3 5 4 4 5 4 5 6 5 5 4 4 4 4 5 6 5 2 2 3 1 3
16 17 16 16 17 18 19 20 21 22 22 22 21 18 16 15 14 12 11 10 9 8 7 7 7 6 6 6 5 5 6 5 4 2 3 3 2 2 3 3 0 1 2 3 4 3 2 3 3 2 4 3 3 4 3 4 4 2 2 2 1 1 2
16 17 18 18 17 18 20 20 20 21 21 21 20 17 15 15 14 12 12 11 10 9 8 7 7 6 6 5 4 4 5 5 4 3 3 3 2 2 3 3 2 1 2 3 3 1 0 1 1 1 2 2 3 3 2 2 1 0 1 1 2 3 0
16 17 19 18 16 17 20 21 20 20 19 19 19 17 15 14 14 13 12 11 10 10 9 8 7 7 6 6 5 4 4 5 4 4 4 4 4 4 3 3 3 2 2 3 2 1 0 0 1 1 1 1 1 1 1 0 1 1 2 2 3 2 1
18 17 19 18 17 18 20 21 21 19 19 19 18 17 16 15 14 13 12 12 11 10 9 8 7 7 7 7 7 6 6 6 6 6 6 6 6 6 5 4 4 5 4 3 3 2 1 2 1 0 1 2 1 2 1 1 2 2 3 3 4 5 4
19 18 20 20 19 18 18 20 21 20 19 19 18 16 16 15 14 13 12 12 11 10 9 8 8 8 8 8 9 9 9 9 9 9 9 8 8 8 8 7 7 7 7 6 6 5 5 5 4 3 5 6 4 4 5 3 3 3 4 3 3 5 7
19 20 21 20 20 19 18 18 19 18 18 18 17 16 16 15 14 14 13 13 12 11 10 10 9 9 9 9 10 11 12 13 13 13 12 10 9 9 9 8 8 8 8 8 8 9 9 9 8 9 11 10 6 3 5 5 5 4 5 6 6 6 6
19 20 22 21 20 19 18 17 17 16 17 16 15 15 15 15 16 16 14 14 13 12 12 12 11 10 9 10 11 13 15 15 15 14 13 11 10 9 9 8 8 8 9 10 10 11 12 11 11 10 10 11 11 8 6 6 6 7 7 8 8 8 7
18 18 19 18 18 18 18 18 17 15 15 16 16 16 16 15 17 17 16 15 14 14 14 13 11 10 11 12 14 16 16 14 13 11 10 8 7 7 7 7 8 9 11 12 13 13 13 12 12 11 11 14 16 15 13 12 10 9 9 9 9 8 8
13 14 15 15 16 17 17 17 17 16 16 18 18 20 20 19 18 15 15 17 17 16 14 12 10 11 12 14 15 14 10 9 8 6 5 4 3 3 4 4 7 9 11 13 14 15 15 15 14 14 16 18 17 16 17 16 13 11 10 9 10 9 8
9 10 12 12 13 15 16 16 17 17 17 19 20 19 20 21 18 14 14 16 17 15 12 10 8 9 9 8 7 5 3 3 3 1 1 1 1 2 1 3 5 8 8 8 11 13 14 14 14 15 16 18 18 17 17 16 14 13 11 9 10 9 8
8 8 10 11 10 12 14 15 15 15 16 17 17 16 17 19 18 15 14 13 11 10 8 6 6 6 5 4 2 1 1 2 3 3 2 1 1 2 2 2 5 7 7 6 6 8 11 11 11 13 14 15 17 18 17 17 16 15 12 11 11 10 9
8 8 10 11 11 11 12 13 13 14 14 14 13 13 15 17 14 12 13 11 6 6 7 7 6 5 4 4 2 0 1 2 1 1 1 1 1 1 1 2 4 7 8 7 6 7 10 10 9 10 11 14 16 17 17 18 17 16 14 14 15 13 10
7 7 8 8 8 9 9 9 10 11 12 13 13 13 13 13 9 5 6 6 5 5 6 6 5 5 4 4 3 2 1 2 1 1 1 2 2 3 3 3 3 5 6 5 4 6 9 8 7 8 11 13 15 16 17 18 17 16 15 15 15 14 13
7 7 8 8 8 8 8 8 7 8 9 10 10 10 9 8 6 4 4 5 4 4 4 5 5 5 6 6 4 3 2 2 1 2 4 4 3 4 4 3 2 3 4 6 6 7 8 7 5 7 9 12 13 14 16 15 15 15 14 14 14 15 16
8 9 8 8 8 7 8 8 8 8 9 8 9 9 8 8 8 7 7 6 3 2 4 4 4 5 6 5 4 3 2 2 2 2 3 3 4 5 5 2 2 5 7 7 7 7 7 5 3 3 5 6 8 10 11 11 12 13 14 14 16 17 19
9 8 8 8 8 8 9 10 10 10 11 10 10 10 8 7 6 6 6 5 3 3 4 4 4 4 4 4 5 4 3 3 4 3 2 0 5 7 5 4 6 8 8 7 5 6 5 3 4 4 4 4 4 6 8 10 12 13 15 16 18 19 21
7 7 7 8 9 10 10 10 10 10 10 9 9 9 8 7 7 6 7 6 3 3 2 2 2 3 3 3 4 4 3 4 4 4 2 1 3 5 5 6 8 9 8 7 6 5 4 6 7 6 7 6 6 7 10 13 14 16 18 19 21 22 23
6 6 6 7 8 9 9 9 9 9 8 9 9 8 8 8 7 7 7 5 4 3 3 2 2 2 2 2 3 4 4 4 5 4 2 2 1 3 4 5 7 7 6 6 5 4 4 8 8 6 7 8 7 9 13 16 14 13 16 19 21 23 24
6 5 5 6 6 7 7 7 8 8 8 8 8 8 8 8 7 7 6 5 5 5 5 4 3 3 3 2 4 5 4 4 5 4 3 4 3 5 5 4 5 6 5 5 5 4 5 8 8 7 8 9 10 12 14 15 13 13 16 19 20 21 22
4 5 5 6 7 7 7 8 8 8 8 8 8 9 9 8 7 8 7 5 5 7 7 5 4 4 4 3 5 7 6 4 6 5 5 6 5 7 7 6 8 7 6 7 7 6 6 8 10 11 11 12 14 16 17 17 17 18 19 18 16 15 14
5 5 6 7 8 9 10 10 10 10 10 10 10 11 11 9 9 9 9 7 8 8 8 6 5 5 5 4 5 7 7 6 6 6 5 5 6 7 9 8 10 11 10 9 9 9 10 11 13 14 14 15 16 18 19 19 17 16 14 11 11 11 11
8 9 9 9 10 11 11 12 12 12 12 12 12 12 12 11 10 11 11 10 10 10 9 8 6 5 5 4 4 5 5 5 7 7 5 4 6 10 13 13 14 15 14 13 12 12 13 14 15 16 17 18 18 18 17 16 13 11 10 10 11 11 10
11 11 11 12 12 12 13 12 12 12 12 12 12 12 12 11 11 12 12 11 11 11 10 9 8 7 5 4 3 4 3 3 5 6 5 5 7 11 14 15 16 16 15 13 13 15 15 16 17 17 16 16 15 14 12 9 8 9 9 10 10 9 9

ECMWFFLT1_850_spd_060.txt.gz
Wind_Speed
14 14 13 12 10 10 9 9 10 10 8 8 8 7 7 7 7 8 12 11 8 5 4 5 7 6 7 7 7 7 7 8 9 10 10 10 10 9 9 8 7 7 5 5 7 7 10 16 17 14 14 15 15 15 16 16 14 13 12 12 11 9 9
15 14 13 12 10 10 11 11 10 10 9 9 9 9 8 7 6 9 14 13 10 8 6 7 6 6 7 7 7 8 8 9 11 11 12 13 13 12 12 11 10 10 8 6 7 7 10 16 16 14 14 16 18 19 19 19 16 13 12 12 12 10 8
14 13 12 11 11 11 11 11 10 8 10 11 11 11 10 9 9 10 13 12 11 10 9 9 8 9 10 9 9 10 10 10 11 13 13 13 13 12 10 10 9 9 10 9 8 9 12 14 15 14 14 17 21 20 19 20 18 14 12 12 13 12 10
15 14 12 11 12 13 11 9 8 7 9 11 12 11 10 11 11 12 12 12 13 12 11 11 10 11 11 11 11 11 11 10 10 12 14 13 13 13 12 11 10 9 10 10 10 11 14 16 17 16 15 18 21 21 18 16 16 16 13 12 13 14 14
16 14 12 11 12 13 11 10 10 9 8 10 11 10 10 10 11 12 12 13 14 13 12 11 10 10 11 12 11 11 11 11 11 13 15 15 15 15 15 12 11 13 12 11 11 14 16 18 18 18 17 17 19 21 18 15 15 16 14 12 11 12 13
16 13 11 12 12 13 13 12 11 10 10 10 10 10 10 10 10 10 10 11 13 13 14 13 11 10 10 11 11 12 12 12 13 13 14 16 16 15 15 14 13 15 13 11 12 16 16 18 19 18 15 16 20 22 20 18 16 15 14 11 9 8 10
15 13 14 14 14 13 13 12 11 11 10 10 10 10 9 9 8 9 9 10 10 11 13 14 13 11 9 10 12 12 14 13 13 13 13 15 16 15 13 14 16 16 13 11 12 13 12 14 16 14 15 18 21 21 19 17 16 14 13 8 5 6 8
16 15 15 15 15 14 13 13 12 12 11 11 10 9 8 9 9 10 11 11 11 11 12 13 13 12 11 13 14 14 15 16 15 15 15 15 17 16 13 13 15 15 14 13 13 12 11 12 12 10 14 17 18 19 17 15 14 13 11 7 3 4 6
17 17 16 16 15 15 15 15 13 12 12 12 11 10 10 11 12 12 13 13 14 13 13 13 14 13 13 14 14 14 15 15 16 16 16 17 17 16 14 13 13 14 14 15 16 15 14 14 11 8 11 14 16 18 17 15 14 12 10 7 5 3 4
17 17 17 17 16 16 16 15 14 14 13 12 12 12 13 14 13 14 14 14 14 14 14 13 14 14 13 13 14 14 14 14 15 15 15 16 17 16 14 14 14 14 12 14 16 16 14 12 9 8 11 11 12 16 18 17 15 12 10 7 6 3 3
17 16 17 17 17 18 18 17 16 16 15 14 15 15 16 16 15 15 14 14 14 13 12 12 12 11 11 11 11 11 12 12 13 13 13 14 14 15 15 15 16 16 13 13 15 15 14 11 8 8 10 11 10 12 20 19 14 11 10 9 8 6 4
18 16 17 18 18 19 19 18 18 17 16 17 18 18 18 17 16 15 14 13 12 11 10 9 9 9 8 8 8 8 9 9 9 10 10 11 11 11 13 13 15 15 13 12 14 14 14 12 9 6 6 10 14 11 15 18 15 12 9 8 9 8 6
19 16 17 18 18 20 20 19 19 18 18 19 20 19 19 17 16 15 13 12 10 9 8 8 7 7 7 6 5 6 7 7 6 6 7 8 8 8 8 9 11 12 11 12 13 11 12 12 11 9 6 8 12 11 10 13 14 13 9 7 7 5 6
21 17 16 17 19 20 20 20 19 19 20 21 21 20 19 18 16 14 13 11 9 8 7 6 5 5 6 5 4 6 9 7 4 5 6 6 5 5 6 6 6 8 9 12 11 8 9 9 8 9 9 9 10 10 7 6 7 9 9 8 7 5 5
21 18 16 17 19 20 20 20 20 20 22 22 22 20 19 18 16 14 12 10 9 7 6 5 5 4 4 4 4 7 9 5 1 3 5 4 3 4 5 3 1 4 7 11 11 8 8 7 6 8 10 8 9 9 6 5 5 6 8 8 5 5 7
23 20 18 19 20 20 21 21 21 22 23 23 23 21 19 18 16 14 12 10 8 7 6 5 5 5 3 3 4 5 6 5 3 2 5 4 2 2 3 2 2 3 5 9 9 7 8 10 9 9 9 6 6 8 7 7 7 6 8 7 4 4 6
24 23 22 22 22 21 22 21 21 23 24 24 23 20 17 17 16 13 11 10 8 7 6 5 6 6 5 3 3 2 2 2 2 1 3 4 0 5 2 2 2 3 3 4 6 5 6 9 8 6 6 4 2 4 6 7 5 4 6 6 4 4 5
22 23 25 25 23 22 23 22 22 23 23 24 23 19 16 16 15 13 12 11 9 9 9 8 6 7 6 5 4 3 2 3 3 3 3 4 3 4 4 1 1 0 1 2 5 5 3 5 7 7 7 4 1 1 3 6 5 3 4 4 3 2 0
23 24 24 24 23 23 22 21 21 21 21 21 20 19 16 15 15 13 12 12 11 11 11 10 8 7 6 6 6 7 6 6 6 5 5 5 6 7 6 3 4 5 5 2 3 4 3 4 5 6 6 5 3 3 1 2 3 2 1 3 3 1 2
24 24 24 23 22 20 19 20 20 18 18 18 18 18 17 16 15 14 11 11 12 13 14 12 11 8 6 7 8 8 7 7 8 9 8 8 10 10 9 7 6 7 7 4 3 4 5 6 5 3 5 5 5 4 2 2 5 4 2 2 2 2 2
20 23 25 25 22 18 16 17 18 17 17 17 17 17 16 15 15 15 14 15 15 14 13 14 13 10 9 9 8 8 9 9 12 13 12 9 10 10 9 9 7 5 6 6 6 6 6 7 6 4 5 8 9 8 6 6 7 6 5 5 4 3 2
16 18 22 24 23 20 15 13 15 16 17 17 17 16 16 16 17 17 18 19 18 15 13 13 10 8 7 7 7 9 11 12 12 11 8 6 7 7 7 7 6 5 6 7 8 9 8 8 7 7 7 8 10 12 11 10 9 8 7 8 7 6 4
17 17 18 19 20 20 17 14 16 17 17 17 17 18 18 18 19 20 19 18 17 17 15 11 7 6 7 7 8 9 9 8 6 3 1 2 3 4 5 5 4 4 6 8 10 11 11 11 10 10 10 11 11 12 12 12 12 11 10 9 8 7 6
15 16 16 17 16 17 18 18 20 22 21 21 20 20 20 19 19 20 18 16 17 17 14 11 9 9 9 7 6 5 2 1 2 4 5 5 5 4 4 4 4 3 4 6 7 8 10 11 12 11 11 12 12 13 14 14 13 11 11 10 10 9 8
13 13 14 15 15 15 18 20 22 24 23 22 21 20 19 20 20 18 16 15 15 14 13 14 14 11 8 5 4 4 4 4 4 5 5 6 7 5 3 1 2 3 4 5 5 5 6 7 9 9 9 10 12 13 14 15 14 12 12 12 11 12 12
8 8 9 10 12 14 19 21 22 23 21 19 19 19 19 20 19 16 14 13 13 13 12 13 12 8 6 6 6 6 6 5 5 5 5 5 6 5 4 1 2 3 4 5 5 5 5 6 7 8 9 9 10 11 12 13 14 13 14 14 13 14 15
5 7 8 10 11 14 17 19 20 20 18 17 18 19 19 18 17 17 15 13 13 13 12 11 10 9 8 8 7 7 7 7 7 6 6 7 7 8 8 5 0 3 4 4 4 5 5 6 7 7 9 9 9 10 12 12 13 14 15 16 16 17 18
6 7 9 11 12 13 14 15 16 16 16 15 16 15 14 14 15 15 14 11 11 11 12 12 12 11 10 9 8 8 8 8 6 6 6 6 5 4 7 8 6 4 5 3 4 6 7 7 7 7 9 10 10 11 12 12 11 12 13 14 15 16 18
8 10 9 9 10 11 11 12 13 13 13 12 12 11 10 9 10 11 10 9 9 9 10 11 11 11 11 10 9 9 8 6 5 6 6 5 4 3 4 7 8 7 5 5 5 7 8 7 6 6 7 8 9 10 11 11 11 10 11 12 13 14 15
7 10 9 8 9 10 10 10 10 10 9 9 9 10 12 12 11 11 11 9 8 8 9 10 10 11 11 11 10 10 10 8 9 8 6 5 4 3 5 7 8 6 5 5 5 5 6 4 2 2 5 8 9 9 8 8 9 9 10 12 14 15 17
6 7 7 8 9 9 10 10 9 9 10 10 8 9 12 14 12 11 9 8 8 10 11 11 11 10 10 11 11 11 10 9 11 8 5 4 2 2 4 5 6 6 5 5 4 2 3 5 6 4 5 7 8 9 9 9 9 11 13 15 17 18 19
7 8 8 7 8 9 10 10 9 10 11 11 9 9 11 13 13 12 10 9 10 11 11 10 10 10 10 10 10 11 11 9 8 5 4 5 3 2 3 2 3 5 5 4 3 2 3 7 8 7 7 8 7 8 11 13 13 15 17 18 19 20 21
4 7 7 6 7 8 8 9 10 10 10 11 10 9 11 13 14 14 13 12 11 10 10 10 10 9 9 9 9 11 12 9 8 7 7 9 7 4 5 3 2 4 5 4 4 4 3 7 10 10 10 11 11 12 13 15 16 18 17 18 21 23 22
2 3 3 4 7 8 7 7 9 10 10 10 9 9 12 14 14 14 14 12 11 10 10 9 9 9 9 9 10 12 13 11 9 8 6 8 9 7 6 5 4 5 6 6 7 8 6 7 11 12 12 13 13 14 14 15 17 18 19 21 23 21 16
3 4 4 4 6 7 7 6 8 9 10 10 8 8 12 13 11 12 13 10 10 10 9 9 9 9 9 10 11 13 15 13 12 10 8 7 9 7 5 6 7 8 9 10 10 11 10 8 10 12 14 15 16 16 17 18 20 21 22 22 20 15 12
5 6 7 8 8 8 9 8 9 10 11 12 11 10 12 13 12 12 12 10 12 13 12 10 11 11 11 12 12 14 13 12 12 11 9 8 8 7 5 6 7 9 11 13 13 13 13 11 11 13 14 15 17 17 18 17 17 16 15 15 14 12 11
8 9 10 11 11 12 12 12 12 13 13 14 15 14 14 16 17 16 14 14 16 17 15 13 13 14 14 14 13 14 13 11 12 12 11 10 10 8 7 7 8 9 10 12 14 15 14 12 12 14 15 16 16 15 13 10 8 6 7 9 10 10 9

ECMWFFLT1_850_spd_063.txt.gz
Wind_Speed
21 22 22 21 21 21 21 19 19 18 16 13 9 9 11 13 14 12 9 7 6 4 3 5 9 9 7 6 6 6 7 8 8 10 12 12 11 11 10 9 10 11 12 11 13 17 19 19 16 15 14 12 11 10 10 9 8 7 6 5 5 5 6
21 23 22 19 17 18 19 18 17 17 16 13 11 10 11 14 16 13 9 10 9 6 4 5 8 8 8 9 9 9 10 11 11 13 16 15 14 14 13 12 12 13 14 13 13 13 15 19 18 15 14 14 13 12 11 11 9 7 5 5 5 5 6
23 23 21 17 16 17 18 17 16 16 15 14 13 11 11 16 19 14 12 14 12 7 6 8 9 10 10 10 11 11 11 12 14 15 16 14 13 14 13 11 12 15 16 16 16 14 14 17 19 19 18 18 18 15 12 10 9 8 7 8 8 7 7
23 22 20 18 18 18 18 18 16 15 16 16 15 13 15 20 21 17 15 15 12 7 7 10 11 11 11 11 11 11 12 13 14 15 15 14 14 15 14 11 11 12 13 14 16 15 17 20 24 25 24 22 21 18 15 12 10 10 10 11 12 12 11
21 20 19 18 18 18 19 18 16 16 17 17 16 14 15 19 21 19 16 14 11 9 9 10 10 10 10 10 9 10 12 13 13 15 16 15 15 16 16 14 14 13 12 13 13 14 17 22 26 28 26 24 21 19 16 14 12 11 12 13 13 13 13
19 18 17 17 17 18 18 18 16 17 18 17 15 15 15 16 19 19 17 15 14 12 10 8 9 9 9 10 10 11 12 13 12 13 16 16 16 17 17 17 16 16 15 15 16 17 19 22 26 27 25 23 22 20 17 15 12 10 10 11 12 12 11
18 16 16 16 17 18 17 15 14 15 17 16 15 15 14 14 15 16 16 17 16 14 11 9 9 9 10 11 12 12 13 12 11 12 15 16 16 17 18 18 17 17 18 18 18 18 19 20 23 26 25 23 22 20 18 14 9 6 6 6 7 8 9
17 15 15 17 18 18 16 13 12 14 15 16 15 14 12 12 14 15 16 17 17 15 12 11 11 12 13 13 13 13 13 13 12 12 13 14 15 17 18 18 17 16 16 16 17 15 15 17 20 24 28 27 23 21 20 16 8 4 5 4 4 5 5
16 15 16 17 18 17 15 13 13 14 14 14 13 11 11 12 14 16 16 17 17 15 13 12 14 15 15 14 14 14 15 14 13 13 12 12 14 17 19 18 16 16 17 17 16 14 14 16 17 21 27 30 29 25 21 16 10 7 5 4 4 5 4
16 16 17 18 17 15 13 13 13 13 13 13 12 12 14 15 16 17 18 18 17 16 16 15 16 17 17 17 16 16 15 14 13 12 12 13 14 16 18 18 17 18 19 19 18 17 15 15 15 18 21 25 25 23 21 17 12 10 6 2 4 5 5
16 17 17 18 16 14 14 14 13 12 12 12 13 15 17 17 18 19 20 20 19 19 18 18 17 18 18 18 18 17 16 15 14 14 13 14 15 15 16 17 16 17 18 17 15 15 15 15 15 14 17 21 17 14 18 19 14 10 8 4 4 5 6
17 17 17 17 15 15 16 16 14 13 12 13 16 18 19 19 20 20 20 20 19 19 18 17 16 15 15 15 15 15 15 14 14 14 13 13 14 14 15 15 15 15 16 15 12 11 11 11 11 10 13 19 16 10 13 18 17 12 9 6 4 4 4
18 18 18 16 15 16 17 16 14 13 12 15 18 19 20 20 20 20 19 18 17 16 15 15 14 13 12 13 13 13 12 11 11 12 12 12 12 12 12 13 15 15 14 14 12 9 8 7 6 9 12 15 15 11 10 13 15 15 10 5 3 2 1
17 16 16 15 16 17 16 15 14 13 13 17 19 20 21 21 20 18 16 16 15 14 13 13 12 12 11 12 13 11 9 8 10 11 10 9 10 10 10 11 14 16 15 15 14 11 10 10 9 10 13 14 13 9 7 7 10 12 11 8 6 4 4
17 16 15 14 16 17 15 15 14 12 13 17 19 20 20 20 19 17 15 14 13 12 11 11 12 11 10 12 14 11 6 5 8 10 8 7 7 7 7 8 11 15 16 15 15 12 10 11 12 12 12 13 12 9 6 6 7 9 11 10 9 8 7
17 17 15 13 15 16 15 14 13 11 13 17 18 19 19 18 17 15 13 12 11 11 10 10 11 9 8 12 14 12 8 6 7 9 8 7 6 5 6 8 9 12 13 14 13 12 12 12 13 12 10 9 9 9 8 6 7 9 12 12 10 9 7
15 15 15 14 14 14 13 12 10 9 12 16 18 18 18 17 16 13 12 10 9 9 9 10 10 7 8 12 12 11 9 6 8 10 8 6 6 5 6 8 9 11 11 12 12 12 13 13 12 11 9 7 8 8 8 7 8 9 11 12 11 9 8
14 13 13 15 16 15 12 9 7 8 11 15 18 17 16 16 14 12 10 8 7 8 8 9 10 7 7 8 8 7 7 5 6 7 8 9 8 7 6 5 8 11 11 11 12 12 12 12 10 9 9 9 8 7 7 8 9 9 10 11 11 9 8
17 15 15 16 18 16 12 9 7 9 11 14 17 17 14 14 14 12 10 9 8 9 10 10 11 11 9 7 5 5 4 4 4 5 7 9 9 8 6 6 6 9 10 11 10 11 11 11 10 9 10 11 9 8 8 8 8 8 9 11 12 9 7
19 18 17 16 15 12 12 11 11 12 12 14 16 16 13 12 14 13 12 12 12 13 13 13 12 12 10 8 6 5 4 4 5 6 7 9 9 9 9 9 8 8 9 10 11 10 11 11 10 9 8 10 10 9 9 9 9 9 9 10 10 8 6
18 19 19 16 13 13 14 15 15 15 15 14 15 16 14 13 15 15 14 14 15 16 16 15 13 12 10 8 6 4 5 7 7 8 9 10 11 11 12 12 10 9 9 9 10 10 10 10 10 9 8 8 9 10 10 9 10 11 10 9 9 8 8
16 18 19 18 17 17 19 19 18 18 16 14 14 16 16 15 16 17 16 17 17 17 17 16 15 13 11 9 6 5 7 9 9 9 9 9 10 11 12 11 9 9 9 9 9 8 7 7 7 8 9 9 8 9 10 9 10 11 10 9 9 9 9
17 16 18 19 20 22 23 21 21 20 18 17 16 17 19 18 18 19 19 19 18 17 16 15 15 14 12 9 6 5 7 7 5 4 5 7 7 9 11 10 8 8 9 8 8 7 7 7 7 7 8 9 9 9 9 9 10 10 10 9 10 10 11
16 15 17 18 20 22 23 23 24 22 20 21 21 21 22 21 20 20 21 20 19 17 15 14 13 14 12 9 6 6 6 5 3 5 7 8 8 8 9 10 9 8 7 6 6 6 7 7 8 8 8 9 10 10 10 10 10 10 10 10 10 11 12
11 13 16 17 18 20 21 23 26 24 23 25 24 22 23 23 22 21 21 21 20 18 16 14 13 13 13 10 8 8 8 7 7 8 9 9 9 9 9 9 8 7 6 5 5 5 5 5 6 6 7 8 9 10 11 11 11 11 11 11 11 12 13
10 11 13 13 15 20 22 22 23 23 24 26 25 23 22 23 22 21 21 21 21 20 17 15 13 14 13 12 10 10 10 10 10 10 11 11 11 11 10 9 8 8 7 6 5 5 4 3 3 4 5 6 8 9 10 10 11 12 12 13 12 12 14
8 9 11 12 15 21 25 24 23 23 23 24 24 23 21 21 21 21 21 21 20 19 16 14 13 14 14 12 12 12 12 12 12 11 11 11 11 11 10 9 8 7 5 5 4 4 3 2 2 2 3 4 5 7 8 9 10 11 12 12 13 13 14
7 8 9 12 17 22 26 27 26 25 23 21 23 23 22 20 20 21 21 20 18 17 16 16 15 13 13 14 14 14 13 12 12 10 9 10 10 10 9 8 8 6 5 4 3 4 4 4 3 3 4 4 5 6 8 9 10 10 11 12 13 13 14
7 8 9 12 14 17 23 25 26 25 23 20 22 23 23 22 21 21 21 19 18 18 18 17 15 15 16 16 15 14 14 14 13 11 10 11 11 11 10 8 8 7 6 5 5 6 6 6 5 5 5 4 4 4 5 6 7 7 9 10 11 11 12
9 9 8 10 12 13 17 21 21 21 20 20 20 20 19 19 20 20 20 18 17 17 16 15 16 17 17 17 15 15 15 15 14 12 11 9 9 10 10 9 9 8 6 6 6 6 7 7 7 6 5 4 4 3 3 4 4 5 7 8 8 9 10
8 9 8 7 8 10 12 14 15 15 16 17 18 16 16 16 16 16 15 15 15 14 14 16 17 18 17 17 16 17 17 15 13 11 9 8 7 7 8 8 7 7 7 7 7 6 6 7 7 7 7 7 6 6 6 7 7 8 9 9 10 11 12
6 7 7 6 6 7 7 8 9 10 11 11 12 14 15 15 15 15 15 14 13 13 14 16 16 16 17 17 17 18 18 16 13 11 9 9 8 7 6 6 5 5 5 6 5 5 5 6 6 7 9 10 9 9 10 11 12 13 13 14 15 15 16
8 6 6 6 6 6 6 6 7 8 9 8 9 11 13 13 14 15 14 12 12 13 13 14 15 15 16 17 19 18 17 17 16 14 13 12 10 9 7 6 6 5 3 2 1 2 3 4 6 9 10 11 12 12 12 14 15 17 18 18 18 19 19
8 6 6 7 8 7 6 7 8 8 8 9 8 8 11 13 13 11 10 10 12 13 13 12 14 15 16 18 20 19 17 17 16 15 14 12 10 9 8 7 7 6 4 3 3 3 4 4 6 10 12 14 14 14 15 16 17 19 20 20 20 21 20
5 4 5 8 9 8 8 9 11 10 10 11 11 11 15 17 15 13 11 10 12 13 13 13 13 14 15 17 20 20 19 18 18 16 14 13 12 12 10 8 8 7 6 6 6 6 6 6 7 9 13 15 17 17 17 18 19 20 20 20 20 19 17
3 2 3 6 6 6 7 9 12 13 13 12 13 13 14 18 19 18 15 14 13 14 15 15 15 15 15 16 19 22 21 19 20 19 16 14 14 13 10 8 8 8 7 7 7 7 8 9 9 10 12 15 16 17 17 17 17 16 15 15 13 12 11
5 3 3 4 5 6 7 8 10 12 13 14 14 13 11 14 18 20 18 17 16 16 16 16 17 17 17 17 19 22 22 20 20 20 17 14 13 12 10 9 9 8 8 9 10 11 11 12 12 12 12 13 14 14 14 14 12 11 10 9 9 9 10

ECMWFFLT1_850_spd_069.txt.gz
Wind_Speed
16 17 17 17 17 16 15 14 13 13 12 10 8 8 9 10 11 11 10 9 8 8 8 8 8 7 7 8 7 8 9 9 9 8 8 9 11 12 11 11 9 6 7 9 7 8 12 13 10 7 8 7 6 6 4 4 3 2 2 2 2 3 4
15 17 18 18 18 16 15 13 12 11 11 8 5 7 10 10 10 10 9 8 7 6 6 7 8 8 8 8 8 8 9 9 9 8 8 8 10 11 11 10 9 8 9 9 7 8 11 14 14 12 11 9 8 8 7 6 6 6 6 6 6 6 6
16 16 18 19 18 16 15 14 12 10 9 7 5 8 11 9 8 8 7 6 5 5 6 6 7 8 8 8 7 7 8 8 8 8 8 8 9 10 10 9 9 10 11 11 10 10 11 13 15 15 12 10 10 11 10 9 9 9 9 8 8 7 8
15 16 18 19 17 16 15 14 13 11 9 7 6 9 12 10 8 7 6 5 4 5 6 7 7 8 8 8 7 7 8 8 7 7 8 9 9 9 8 7 7 8 9 10 10 11 12 12 15 18 15 12 13 14 13 13 12 12 12 10 9 9 10
13 15 17 17 16 16 14 14 13 11 10 8 6 8 11 11 9 8 6 5 4 4 6 7 8 8 8 8 8 8 8 8 7 7 7 7 7 8 8 7 6 6 6 7 10 12 11 10 14 19 17 15 17 18 16 16 16 15 14 13 12 12 12
13 14 16 16 15 15 13 12 12 10 10 8 7 9 10 10 10 8 6 4 2 3 6 8 9 9 9 8 8 8 8 8 8 7 7 7 6 6 8 9 8 6 6 7 10 11 10 10 14 19 19 17 18 20 18 17 16 16 15 14 14 13 12
15 13 14 15 15 14 12 11 10 9 9 8 7 10 10 10 10 8 6 3 1 2 7 9 9 10 9 9 9 9 8 8 7 7 7 6 6 5 7 9 9 8 7 8 10 10 10 12 16 19 21 20 19 19 18 16 15 14 14 13 12 12 11
15 13 13 13 13 13 12 11 10 9 9 8 8 11 11 10 9 7 5 3 1 4 8 9 10 11 10 10 10 9 8 7 6 7 6 5 5 5 7 10 10 10 10 10 9 9 10 13 16 16 17 19 20 18 15 14 13 13 13 12 12 11 9
15 13 13 13 12 11 11 10 9 8 8 8 9 12 12 10 9 7 5 3 2 6 9 9 10 10 11 11 11 10 10 8 7 7 6 6 5 7 9 11 12 12 12 11 10 10 13 15 15 13 10 10 15 19 15 13 13 12 11 11 11 10 8
14 12 12 12 12 11 11 10 8 8 8 8 9 12 13 11 9 7 5 3 4 7 9 9 9 9 9 10 10 11 11 10 8 7 6 6 6 8 11 13 13 14 13 12 12 14 16 16 13 12 8 5 7 13 16 15 13 12 10 9 9 9 9
14 12 12 12 12 11 11 10 8 8 9 8 8 11 13 12 10 7 5 4 6 8 9 9 9 8 9 9 9 9 11 11 11 9 8 6 6 9 12 13 13 14 14 13 14 15 15 14 12 11 9 6 5 6 9 13 14 12 9 9 9 9 9
15 14 13 13 13 13 11 10 9 10 11 10 10 11 12 12 10 8 6 7 8 9 10 10 9 9 9 9 9 9 10 11 13 12 11 10 8 8 10 11 10 11 12 12 13 15 14 12 12 10 8 6 4 4 5 8 11 12 10 9 10 10 10
17 15 14 14 14 13 12 10 10 12 13 12 12 12 12 11 10 9 9 10 10 10 11 11 11 11 11 11 11 11 10 10 12 13 13 12 11 9 9 10 10 9 11 11 13 14 14 13 12 10 7 6 5 4 4 5 6 11 12 10 10 11 10
16 14 13 14 14 13 11 10 10 13 14 13 14 14 13 12 12 12 12 11 11 12 12 12 12 11 11 11 11 12 11 10 11 12 14 14 12 11 10 11 11 11 11 12 12 13 14 14 14 12 10 9 7 6 5 2 3 8 12 11 9 10 10
15 14 14 14 15 13 11 10 10 12 13 13 15 15 15 15 15 15 14 14 13 13 12 12 11 11 10 9 9 10 9 9 10 10 12 14 13 12 11 11 11 10 10 10 10 11 12 13 14 14 13 12 11 9 7 5 1 3 8 10 9 9 10
16 15 14 15 15 13 11 11 10 9 11 14 15 16 17 17 18 17 16 15 14 13 12 11 11 11 10 9 8 8 7 7 8 8 9 11 12 13 12 12 11 10 9 9 8 8 9 10 11 12 12 13 13 11 9 7 5 4 7 9 9 9 9
18 16 15 16 15 14 12 11 9 8 10 14 16 17 18 19 19 19 18 16 14 12 12 12 12 12 11 10 9 8 8 7 7 8 8 8 9 11 12 13 12 11 10 9 9 9 9 9 10 10 11 13 14 13 11 9 6 5 7 9 10 10 9
18 17 16 16 15 13 12 11 9 8 10 15 18 19 20 20 20 19 17 15 13 12 12 12 12 12 12 11 10 8 8 7 7 8 8 8 8 8 10 12 12 12 11 10 10 9 8 9 9 11 13 14 15 15 12 9 6 6 8 10 11 11 11
20 18 17 16 14 13 13 11 10 8 10 14 19 21 21 20 18 17 15 13 12 11 11 11 12 12 12 11 9 8 7 6 6 7 7 7 7 6 7 9 10 11 10 9 10 9 8 8 8 9 11 13 14 13 12 9 8 7 9 11 11 11 11
21 20 19 17 15 14 14 12 11 10 11 15 20 21 21 20 17 15 13 12 12 11 11 12 12 12 12 12 10 8 7 6 7 7 8 8 7 7 7 7 8 10 10 9 9 9 9 9 9 9 10 12 12 12 11 10 9 10 11 12 11 11 11
23 22 20 17 15 16 16 15 13 12 12 16 20 21 21 20 17 15 14 13 12 12 12 14 14 13 13 13 12 10 9 8 8 9 9 9 9 9 9 8 8 10 11 11 10 11 11 12 11 11 11 11 11 11 10 10 11 12 13 14 13 12 11
24 23 21 18 18 18 19 18 16 14 14 17 20 20 20 19 17 16 15 14 13 13 14 15 15 14 14 14 13 12 11 11 11 11 11 11 11 11 12 12 11 11 12 12 12 12 13 13 12 11 11 11 11 11 10 10 11 13 15 15 15 14 13
22 23 22 20 21 21 20 19 18 16 17 19 21 20 20 21 20 18 17 16 15 16 17 17 16 15 15 14 13 12 12 12 12 13 13 13 14 14 15 17 16 15 14 14 14 13 13 13 12 12 11 11 11 11 10 10 11 12 14 15 16 16 15
21 23 22 20 20 21 20 20 19 19 19 21 21 22 24 25 23 21 20 19 19 20 21 19 18 17 17 16 15 14 13 14 15 15 16 16 15 16 17 20 21 20 18 17 17 16 15 14 13 13 13 12 12 12 11 11 11 11 12 13 15 16 16
19 20 21 21 21 21 21 21 21 20 21 22 22 25 27 25 23 24 24 22 23 24 24 21 20 20 20 19 18 17 16 17 17 18 18 18 18 18 18 20 23 23 21 20 20 19 18 16 15 15 14 13 13 14 13 12 12 12 13 13 14 15 15
15 16 19 21 22 22 23 24 24 22 21 22 24 27 27 24 24 26 26 25 26 26 24 23 22 22 22 22 21 20 19 18 18 19 20 20 20 20 18 17 20 22 22 21 20 19 19 18 17 17 16 15 15 15 15 15 15 15 15 15 15 15 15
13 15 17 20 21 21 22 24 26 24 23 23 27 29 28 26 26 27 27 27 27 26 25 24 23 22 22 22 22 21 20 19 19 20 21 22 20 19 17 15 17 19 20 19 18 18 19 18 18 17 16 16 16 16 16 16 16 16 16 16 16 15 15
12 14 16 17 19 20 21 23 25 25 23 23 26 29 28 28 28 27 27 28 28 27 27 26 24 23 22 21 21 20 20 20 20 20 21 22 20 17 16 14 15 16 17 17 17 17 18 17 16 15 15 14 15 15 16 16 15 15 15 15 15 14 14
9 11 13 14 15 17 20 22 23 23 22 22 24 26 27 27 27 26 27 28 28 29 29 28 26 24 22 21 21 21 21 21 21 21 21 21 20 17 15 13 14 15 16 16 16 16 16 15 14 13 13 13 13 13 14 14 14 14 14 14 14 14 15
5 6 7 9 11 13 16 18 20 21 22 22 24 25 26 26 25 25 27 28 28 30 31 29 26 24 23 22 22 22 22 21 22 22 22 21 19 16 14 14 14 15 15 15 15 15 15 14 12 12 11 11 11 11 12 12 12 12 12 12 12 12 12
5 5 5 5 6 7 10 13 16 18 18 20 21 22 24 26 26 26 27 27 28 30 29 26 23 23 23 23 23 23 23 23 23 23 23 21 19 17 15 14 15 15 14 13 13 13 12 11 11 10 9 9 9 9 9 8 8 8 8 7 7 7 7
4 4 5 5 5 5 5 7 10 12 13 15 17 18 19 21 23 24 26 27 28 27 23 21 22 23 23 23 24 24 24 24 24 24 24 22 20 18 17 16 16 15 13 12 12 11 10 10 10 9 8 7 7 7 7 7 7 6 6 6 6 7 8
5 4 4 3 3 4 5 5 6 7 9 12 14 15 17 18 19 20 21 23 24 24 21 20 21 22 23 24 25 25 25 26 25 25 25 23 21 20 19 18 18 16 15 13 12 11 10 10 9 8 7 6 6 5 5 5 6 7 7 7 8 10 11
6 6 5 4 2 3 4 4 5 7 8 10 11 13 15 17 17 18 18 18 19 21 22 22 21 22 23 24 24 24 26 26 25 25 24 22 20 19 19 19 19 18 16 14 12 11 11 10 9 8 6 6 5 4 4 5 6 8 9 10 11 12 13
4 4 5 5 4 4 4 4 5 6 7 9 9 9 11 12 13 13 14 14 15 18 19 19 19 19 19 20 22 24 25 24 23 22 21 20 19 18 17 18 18 18 16 14 13 12 11 10 9 7 6 5 5 5 6 7 8 10 11 12 13 14 15
1 1 1 2 3 4 5 5 6 8 9 9 10 10 10 11 11 12 12 12 13 15 15 15 16 16 16 18 21 23 23 22 22 22 21 20 18 18 17 16 17 17 15 14 13 13 11 9 7 6 6 6 6 7 8 9 10 12 13 14 14 14 14
7 6 6 6 6 6 6 6 7 9 11 12 13 13 13 13 13 14 14 14 14 15 14 15 16 17 18 19 22 23 23 22 22 22 22 20 19 18 17 17 17 17 15 15 15 13 10 8 7 7 7 7 8 9 9 10 11 12 13 13 13 12 12

ECMWFFLT1_850_spd_072.txt.gz
Wind_Speed
12 11 12 12 12 12 12 12 11 11 10 9 8 8 9 9 8 8 8 7 7 7 6 7 6 6 6 6 7 7 8 8 8 8 8 10 11 11 12 12 10 6 4 4 5 5 11 16 10 7 9 8 7 8 8 7 6 6 7 8 8 8 7
12 12 13 14 14 13 13 12 12 11 11 10 9 9 9 9 9 9 8 8 8 7 7 8 8 7 6 7 7 7 8 8 8 8 8 9 9 10 11 11 10 7 5 6 6 6 11 16 15 13 12 9 9 10 9 9 9 9 10 11 11 10 10
14 14 15 16 15 15 14 14 13 12 11 11 10 10 10 10 10 10 9 8 8 8 8 8 9 7 7 8 7 7 7 7 7 8 8 7 8 9 10 9 8 8 7 9 9 8 11 15 17 17 13 9 9 12 12 12 12 13 13 13 13 13 13
15 15 16 17 17 16 15 14 13 12 11 9 8 9 10 10 10 9 8 6 5 6 6 7 8 7 7 7 7 7 7 6 6 7 7 7 7 9 9 8 7 7 7 8 8 10 11 13 18 18 13 10 12 14 14 14 14 14 15 15 15 15 16
13 14 16 17 16 16 15 13 12 11 10 8 7 9 10 9 8 6 5 3 2 3 4 6 6 6 6 6 6 5 5 5 4 5 5 5 6 7 8 7 5 5 5 5 6 8 9 10 15 17 15 14 16 17 16 16 16 16 16 16 16 17 17
11 12 15 16 15 14 12 11 11 9 8 7 6 8 10 9 6 4 3 2 1 1 4 6 6 6 5 5 5 5 4 4 3 3 3 3 4 5 7 7 7 6 5 4 5 7 8 9 12 17 18 17 17 20 19 18 19 19 18 17 17 17 16
10 10 12 14 13 13 11 9 9 7 6 5 5 7 10 9 7 4 3 2 1 1 4 6 7 7 6 6 6 5 5 4 3 3 3 3 3 4 6 8 8 6 6 6 6 7 7 8 12 16 19 20 20 20 20 19 19 19 19 18 17 16 15
9 8 8 10 11 11 9 8 8 7 5 4 5 7 9 9 7 5 3 1 1 1 5 7 7 7 6 6 5 5 5 5 4 3 3 3 2 2 5 8 9 8 8 8 8 7 5 5 10 12 12 17 22 21 19 19 18 18 18 18 16 15 14
10 8 7 8 9 9 8 8 7 6 4 4 5 8 10 9 8 5 3 2 1 2 5 7 7 7 6 5 4 4 4 4 3 3 2 2 1 1 4 8 10 9 9 9 8 7 6 6 9 8 5 7 16 20 20 18 18 18 18 17 17 15 13
11 9 7 8 8 8 8 7 6 5 5 6 7 9 10 9 7 5 3 3 2 4 5 6 7 7 6 5 4 3 3 3 3 2 2 2 1 1 4 7 9 10 10 9 8 8 8 9 9 8 5 4 6 15 21 20 18 18 17 16 15 15 13
11 9 8 8 8 7 8 8 7 6 6 7 8 9 9 8 7 5 3 3 4 6 7 7 6 6 6 6 6 5 5 4 3 3 2 2 1 2 4 7 9 9 9 9 9 10 11 11 10 9 8 7 5 7 15 19 19 17 15 14 13 13 13
13 11 9 8 8 7 7 8 8 7 7 7 7 8 9 8 7 5 4 3 5 8 9 8 8 7 7 7 6 7 7 5 4 3 2 3 3 5 7 9 9 9 10 10 11 12 12 11 11 9 8 8 7 6 6 12 17 16 14 13 13 12 13
14 12 9 9 8 8 7 8 7 6 7 7 6 8 9 9 8 6 5 5 7 10 10 10 10 10 9 8 7 8 8 8 6 4 3 5 5 6 7 7 8 8 9 10 10 11 10 10 10 8 6 6 7 6 5 5 12 16 15 14 14 13 14
15 12 11 10 9 8 8 8 7 6 7 8 8 8 9 9 9 7 6 7 9 10 11 12 12 11 10 9 9 9 9 9 8 6 5 5 6 6 5 5 6 6 7 8 9 9 8 9 9 8 6 4 6 7 5 5 10 15 16 16 15 15 15
15 13 12 11 10 10 10 8 7 7 9 10 10 10 10 10 10 9 9 9 10 11 12 13 13 12 11 10 9 9 8 8 8 8 7 6 6 6 6 6 6 7 7 8 8 8 7 8 8 8 7 6 6 6 6 5 6 11 16 17 16 15 15
16 14 13 11 11 11 10 9 8 9 11 11 11 11 11 12 12 11 10 11 12 12 12 12 12 12 10 9 8 8 8 7 7 8 9 8 7 6 6 6 6 6 7 7 7 8 8 8 8 8 8 8 7 7 7 5 4 7 13 17 16 15 14
17 16 13 11 11 12 11 9 9 10 12 12 12 12 13 13 13 12 11 12 13 12 11 11 10 10 9 8 7 6 7 7 6 7 8 8 8 8 7 7 7 6 7 7 7 7 8 9 9 10 10 11 10 9 9 7 5 5 9 14 16 16 14
18 16 14 12 12 13 11 9 9 9 11 12 13 14 14 15 15 14 14 14 13 12 10 9 8 7 7 7 7 6 5 5 5 5 6 6 7 8 8 8 8 8 8 7 7 7 7 8 10 11 13 13 14 13 11 10 8 6 6 10 13 15 15
19 16 14 13 13 12 10 10 9 8 9 11 13 15 15 16 16 16 15 14 12 11 9 8 7 7 7 7 6 6 5 4 3 4 5 5 5 5 7 8 8 8 8 8 8 8 8 9 10 11 13 15 16 16 13 11 9 7 7 9 12 14 15
19 17 15 14 14 12 11 11 9 7 7 9 12 15 16 17 17 17 16 14 11 10 8 8 7 7 7 8 7 5 4 3 3 3 4 4 3 3 4 5 6 7 8 8 7 7 8 8 8 8 10 12 13 14 13 11 10 9 9 10 12 13 13
19 17 16 16 15 13 12 12 10 8 7 7 11 15 16 17 18 17 16 14 11 10 9 7 6 6 6 8 8 7 5 4 3 4 4 5 5 5 4 4 5 5 6 6 7 7 7 7 7 7 7 8 9 11 13 12 11 11 11 11 12 13 13
20 19 18 17 16 15 14 14 13 10 8 7 9 13 15 17 17 16 15 14 12 10 8 6 4 4 5 7 8 8 7 6 5 6 6 6 7 7 7 7 7 8 8 8 8 8 8 8 8 7 7 8 9 11 12 12 12 12 12 12 13 12 12
20 18 16 16 17 16 13 13 14 12 10 9 9 12 15 17 18 16 15 14 12 10 7 5 5 6 7 7 8 8 8 8 8 8 8 8 8 9 9 10 10 11 13 13 12 11 10 10 10 10 9 10 11 11 12 11 11 11 12 12 12 12 12
20 19 16 15 17 16 14 14 15 14 12 11 11 13 16 18 19 17 16 14 13 11 8 8 10 11 10 9 8 8 9 10 10 10 10 10 11 12 12 12 13 14 16 17 17 15 13 12 12 12 12 12 12 12 12 11 10 11 11 12 13 13 13
17 19 18 17 17 16 15 15 15 16 15 13 13 15 16 18 19 19 18 16 15 14 12 11 13 15 14 12 11 11 12 13 13 13 13 14 14 14 14 14 15 16 17 19 19 18 16 15 13 13 13 13 13 13 12 12 11 11 11 11 12 13 14
13 16 17 17 15 14 14 16 16 17 17 15 14 16 17 18 19 20 19 18 17 17 16 14 15 17 16 15 14 14 15 16 17 16 16 17 17 16 16 16 16 16 16 18 20 20 19 17 16 15 15 15 16 15 14 13 13 13 12 12 13 14 14
11 15 16 15 15 14 15 17 18 18 19 17 16 17 19 20 21 21 21 21 20 19 18 17 17 19 18 17 17 17 18 18 19 19 19 18 18 18 18 17 16 15 15 16 18 19 19 18 18 17 17 17 17 17 15 14 14 15 15 15 15 15 15
11 14 15 15 16 16 15 17 17 17 18 19 19 18 19 20 21 22 23 23 22 21 20 20 20 21 20 18 18 19 19 20 20 21 20 19 18 19 19 17 15 14 13 14 16 17 18 18 18 18 17 17 17 17 16 16 16 16 16 16 16 16 16
9 11 13 15 16 17 17 18 19 19 20 21 21 20 20 20 21 23 25 25 24 24 23 22 23 23 21 20 20 21 21 21 21 22 21 20 19 20 19 18 16 14 13 12 13 15 17 18 17 17 17 17 17 16 16 15 15 15 15 14 14 14 14
7 8 10 12 13 14 16 18 19 19 20 22 23 23 22 21 20 22 24 25 25 25 25 24 24 24 23 22 23 23 23 23 24 24 23 22 21 20 20 19 17 15 13 13 13 15 16 17 16 15 15 15 14 14 13 13 13 12 12 12 11 11 11
5 6 6 7 8 9 11 13 15 17 19 21 22 22 21 19 18 20 22 24 24 25 25 25 24 24 23 23 24 25 26 26 27 26 26 24 22 21 20 19 18 17 15 14 14 15 16 16 15 13 13 12 11 11 11 11 10 10 9 9 9 8 8
5 4 4 3 3 4 6 8 10 12 14 15 16 17 18 17 18 20 22 23 24 24 24 24 24 25 24 24 25 27 28 29 30 29 27 25 24 23 22 20 19 18 16 15 15 16 15 15 14 13 12 11 11 10 10 9 9 8 8 8 7 7 7
7 6 5 4 2 0 2 3 5 8 10 11 12 14 15 15 16 18 19 20 20 21 21 22 24 25 25 26 29 29 30 31 31 30 28 27 26 25 23 21 20 18 17 17 16 15 14 14 14 13 12 11 11 10 10 10 9 9 8 7 7 6 5
9 8 7 5 4 2 0 0 2 5 8 10 11 12 13 14 14 15 16 17 17 18 19 19 20 21 21 23 26 28 29 30 29 27 27 28 28 27 24 22 21 19 19 18 17 16 15 14 14 14 13 12 11 11 10 10 9 9 8 7 6 5 4
8 7 7 6 5 3 2 1 2 3 4 7 8 9 11 12 13 13 14 15 16 17 18 18 18 19 21 22 24 26 29 29 27 27 28 29 29 28 26 23 20 19 19 20 19 18 16 15 15 15 14 14 13 12 11 9 8 7 7 6 5 4 4
6 5 5 5 5 5 5 4 4 4 4 5 6 8 9 10 10 11 12 12 13 14 14 14 16 18 21 22 24 25 27 27 25 25 26 25 24 25 25 21 18 18 20 21 21 19 16 15 16 16 16 14 12 11 9 8 7 7 6 5 4 4 3
10 9 9 9 8 8 8 8 8 8 8 8 8 9 10 10 10 10 10 11 12 12 12 12 13 15 17 19 21 22 23 23 22 22 23 21 19 22 23 18 15 17 19 20 20 19 17 17 17 17 15 13 11 9 8 8 7 7 6 5 4 3 2

ECMWFFLT1_850_spd_075.txt.gz
Wind_Speed
18 16 14 13 13 13 13 13 12 11 11 10 10 10 10 9 8 8 7 7 6 6 6 6 6 6 6 6 5 5 6 7 6 6 6 7 7 7 8 8 6 4 1 2 6 9 13 12 9 11 11 9 9 9 10 10 9 9 10 10 10 10 10
17 15 14 14 14 13 13 13 12 11 11 11 11 10 10 9 8 8 7 7 6 6 6 6 5 6 6 6 5 5 5 5 5 6 6 7 7 7 8 9 8 6 4 4 7 7 10 12 13 14 12 9 9 10 10 10 10 10 11 11 12 12 12
16 14 14 14 14 13 13 13 12 12 11 11 10 10 10 9 8 8 8 7 7 7 7 6 6 6 5 5 5 5 4 5 5 5 5 6 7 7 8 9 9 7 5 5 7 8 8 10 13 14 11 9 10 11 11 11 12 13 13 13 14 14 15
16 14 15 15 14 14 13 13 13 12 11 11 10 9 9 9 9 8 8 8 7 7 7 7 8 7 6 5 5 5 4 4 4 3 3 5 6 8 8 8 7 5 5 5 6 9 9 10 14 14 10 9 10 12 14 14 15 15 15 16 16 17 16
13 13 13 14 14 14 14 14 14 13 11 10 10 10 10 9 9 8 7 7 7 8 8 8 9 8 7 6 6 5 4 3 3 2 2 3 4 5 7 7 6 5 4 4 5 8 9 8 12 14 11 9 12 15 15 16 17 16 16 17 17 16 16
12 12 12 12 13 14 14 14 13 12 11 11 12 12 12 10 9 8 7 7 7 8 9 9 10 9 7 7 6 6 5 4 4 3 2 2 2 4 5 6 6 5 5 4 4 7 9 9 11 13 11 10 16 19 17 17 18 18 17 17 17 16 14
12 12 12 13 14 14 13 12 10 10 11 11 11 12 12 10 9 8 7 6 6 7 10 10 10 9 8 8 8 7 7 6 5 5 4 3 2 2 5 6 7 7 6 4 5 7 8 8 10 14 13 12 14 17 18 19 19 18 18 17 16 15 13
12 12 13 13 13 13 11 10 9 10 10 9 9 9 10 9 8 8 6 4 4 8 10 10 9 8 8 8 8 8 7 6 6 6 4 4 3 2 4 7 8 7 6 6 7 7 6 5 8 12 12 14 15 14 15 17 16 17 19 18 16 14 12
13 13 13 12 11 11 10 10 9 9 9 8 7 8 9 9 8 7 5 3 4 8 10 9 8 8 7 8 8 8 7 7 7 6 5 4 3 3 4 7 7 7 7 8 8 7 6 6 8 8 8 13 18 18 15 14 14 18 19 17 16 14 12
13 12 12 11 12 11 10 10 8 8 8 6 7 10 11 11 10 7 4 3 4 7 8 9 8 7 7 7 8 8 8 8 7 6 4 3 3 3 4 5 6 6 8 9 9 8 8 8 8 7 7 10 14 19 20 15 14 18 18 17 15 14 13
14 12 10 11 12 12 11 10 8 7 7 7 9 13 13 12 10 7 4 3 4 6 6 7 7 7 6 6 6 7 7 8 7 5 5 5 4 4 4 5 6 6 7 8 10 11 11 11 9 7 7 7 9 15 21 20 17 17 17 17 16 15 14
15 12 10 10 11 11 10 9 8 7 7 9 12 14 14 12 10 7 5 4 5 6 7 7 7 7 6 5 5 6 6 7 6 6 8 7 7 7 7 7 6 6 8 10 14 15 13 12 11 9 8 7 5 9 16 20 20 18 17 17 16 15 15
15 13 11 10 10 9 9 9 8 8 8 9 12 14 13 11 9 7 6 6 6 8 8 8 8 8 8 7 6 5 6 7 6 7 9 9 10 10 9 9 9 9 11 14 16 16 14 13 11 10 9 9 8 7 10 15 18 19 18 16 15 15 15
15 14 12 10 9 9 9 9 8 8 9 10 10 12 12 11 9 8 8 8 8 9 9 9 10 10 9 8 7 6 6 6 6 7 9 10 10 10 9 9 9 10 12 13 14 14 14 14 12 10 9 9 9 8 8 11 15 17 17 15 15 15 15
15 14 13 11 10 9 9 9 8 9 10 10 9 11 12 11 10 9 9 9 10 11 11 11 11 11 9 8 7 7 7 7 6 6 8 9 9 8 8 7 6 8 9 10 10 10 11 11 11 10 8 8 9 9 8 9 12 14 16 16 16 15 15
16 15 13 11 10 9 9 9 8 8 9 10 9 10 11 12 11 11 10 11 12 12 12 12 12 12 11 9 9 8 8 7 6 6 7 8 8 7 7 6 5 6 7 8 8 8 7 8 9 9 8 7 8 8 8 8 7 10 14 16 16 16 16
17 16 14 12 11 10 10 9 8 8 9 10 10 10 11 13 13 12 11 12 12 13 13 13 12 12 11 10 10 9 8 8 6 6 7 7 7 7 7 6 6 6 7 7 6 6 6 6 7 8 9 9 9 8 8 8 7 7 10 14 16 17 17
18 16 15 13 11 11 11 10 8 8 9 10 10 10 12 14 14 12 12 12 13 13 12 11 10 9 9 8 8 8 7 7 6 6 7 7 7 7 7 7 7 7 7 6 6 6 6 7 8 9 10 11 12 11 10 9 8 7 9 12 15 17 18
18 16 15 13 12 12 12 11 9 8 10 10 10 10 12 14 14 13 13 13 13 12 10 9 8 7 7 7 7 7 6 5 5 5 5 6 6 6 7 8 9 9 8 8 8 8 7 8 9 10 12 13 14 14 12 11 10 10 11 12 14 15 17
19 17 15 13 13 13 12 10 9 8 8 9 9 10 12 15 15 14 14 13 12 11 9 8 8 7 8 8 7 6 6 5 4 4 4 4 3 3 4 5 7 8 9 10 10 10 10 9 10 11 12 13 15 16 16 15 13 12 13 14 16 16 17
18 18 15 13 14 13 12 11 9 7 7 6 7 9 11 15 16 15 15 14 12 10 9 9 8 8 8 8 8 7 6 5 4 3 3 2 1 1 1 2 3 4 6 7 8 9 10 10 11 11 11 11 12 14 16 17 15 15 15 15 17 18 18
14 18 16 15 15 14 12 11 10 7 6 5 6 8 11 15 17 17 16 15 13 11 10 9 8 8 7 7 7 7 7 6 4 3 2 2 1 1 2 2 2 3 3 4 5 7 8 9 10 11 11 10 10 11 13 16 17 17 17 17 18 19 19
13 18 18 16 16 15 13 12 10 9 6 5 5 7 10 13 16 17 16 15 13 12 11 10 9 8 7 6 6 7 8 7 5 3 3 2 2 3 3 4 5 5 5 6 8 9 9 9 10 11 11 11 10 10 11 14 16 17 17 16 17 19 20
14 17 19 17 17 17 15 11 10 10 9 7 6 7 9 12 14 16 16 15 14 13 12 11 10 10 9 7 7 6 7 8 7 5 4 3 4 5 6 7 8 7 8 9 10 11 12 12 11 12 12 12 12 12 12 14 16 16 16 16 17 17 19
12 13 15 14 13 15 15 10 9 11 11 10 8 8 9 11 13 15 16 15 13 13 13 12 11 11 10 9 8 7 6 7 8 7 6 7 7 8 8 9 10 10 10 11 12 12 13 14 13 13 13 14 14 15 15 16 16 16 17 17 17 17 18
9 9 11 11 10 11 12 10 10 11 12 11 10 10 10 11 12 14 15 15 14 14 14 13 12 12 11 10 10 9 9 9 10 10 10 10 11 11 11 11 11 12 12 12 13 14 14 15 15 15 14 15 15 17 17 17 17 17 17 17 16 17 17
7 7 9 11 11 12 12 11 11 11 11 12 12 11 11 11 11 12 14 15 15 15 15 15 14 14 13 13 12 12 12 12 13 13 13 13 14 13 13 13 13 13 13 13 13 14 15 16 16 16 16 16 17 17 18 18 19 19 18 17 16 16 16
6 7 8 9 11 12 11 11 11 11 11 12 13 13 13 12 12 12 14 15 16 17 17 17 16 16 15 15 15 14 14 14 14 15 15 16 16 16 15 15 15 15 15 14 13 14 15 16 17 17 18 18 18 19 19 19 18 18 18 18 17 16 15
5 6 7 9 10 10 10 10 10 10 11 12 13 14 14 13 13 13 14 16 17 18 19 19 18 18 18 18 18 18 17 16 16 16 17 18 18 18 18 18 17 17 16 16 15 14 15 15 16 18 19 19 20 20 19 19 18 17 17 17 17 16 16
4 5 6 7 9 9 10 11 11 11 12 12 13 14 15 15 15 15 15 16 17 18 20 20 21 21 21 21 22 22 20 19 18 18 19 20 20 21 21 21 20 19 18 17 16 16 16 16 17 19 19 19 21 21 20 19 19 18 18 17 17 17 16
3 4 5 6 7 8 9 10 11 12 12 13 14 15 16 17 18 18 18 18 19 20 20 20 20 21 21 21 22 23 23 22 22 21 21 22 23 23 24 23 22 21 20 18 17 17 17 17 18 19 19 19 21 21 19 19 19 19 18 18 17 16 16
5 4 3 2 3 4 5 7 9 11 13 14 15 15 16 18 19 20 20 21 22 21 20 19 20 21 21 21 22 24 25 25 25 24 24 24 24 25 25 24 23 22 21 20 19 19 18 18 19 19 19 18 19 18 17 17 17 17 18 18 17 16 16
10 9 9 8 6 4 2 2 3 6 8 11 13 14 14 15 16 16 18 20 20 19 18 19 20 20 20 20 22 23 25 26 27 27 27 26 26 26 26 25 23 22 21 22 21 20 19 19 19 19 18 17 17 17 17 17 16 16 17 16 16 15 15
11 11 11 11 9 8 6 5 4 3 2 3 4 6 7 9 10 11 14 15 14 15 16 17 17 18 18 18 19 20 21 23 24 25 25 25 25 24 24 23 23 23 22 23 24 23 20 20 19 18 17 16 16 15 16 18 18 17 16 16 16 15 14
9 9 9 9 8 8 7 7 7 6 6 5 5 5 5 5 6 8 10 11 11 11 13 15 15 17 18 18 17 18 18 19 20 20 20 21 22 22 21 20 22 23 21 23 25 24 21 20 20 18 17 16 15 14 15 17 18 18 17 17 15 14 14
5 5 4 4 5 5 5 5 5 5 5 5 5 5 5 6 6 7 9 10 10 10 10 11 12 14 15 16 17 17 17 18 19 20 20 20 20 20 20 19 20 20 19 21 24 22 20 21 21 19 18 18 18 17 16 17 18 18 18 17 15 14 14
3 3 4 4 5 5 5 6 6 6 6 6 6 7 7 8 8 9 10 11 11 11 12 12 12 13 14 16 17 17 16 17 17 18 18 18 18 18 18 18 17 17 17 18 21 21 21 22 20 17 17 19 19 18 18 18 18 17 16 15 14 14 13

ECMWFFLT1_850_spd_078.txt.gz
Wind_Speed
16 16 17 16 15 14 14 14 12 11 11 10 10 10 10 9 9 8 8 8 8 7 6 6 7 8 8 9 9 9 9 8 8 7 9 10 8 8 9 6 4 4 5 5 5 6 7 7 9 10 9 9 8 9 10 8 6 7 8 7 7 8 8
15 15 16 15 14 13 13 13 12 11 10 10 10 10 10 9 9 8 8 8 7 7 6 6 7 8 8 8 8 9 9 8 8 7 8 10 9 8 8 6 4 4 4 4 5 6 6 7 9 10 9 8 9 10 10 8 8 8 9 9 9 10 10
17 16 15 15 15 13 13 13 11 10 9 9 9 9 9 9 8 8 8 7 7 7 7 6 7 7 8 8 7 7 7 7 8 7 7 8 8 7 7 6 6 6 5 6 6 6 6 7 8 10 9 8 9 11 11 9 9 9 10 11 11 12 13
18 16 14 14 15 13 13 12 10 9 9 9 9 9 10 9 9 9 8 8 8 8 7 6 7 7 8 7 6 6 6 6 7 7 6 6 6 6 7 7 7 8 7 6 7 8 8 8 8 10 10 9 8 11 13 11 10 10 11 12 12 13 15
17 16 15 15 15 13 12 11 10 10 10 10 10 10 10 10 9 8 8 8 8 8 7 7 7 7 8 8 7 6 5 6 6 6 5 5 5 6 7 8 8 9 7 6 7 9 8 8 9 10 11 11 8 10 13 12 10 10 11 12 12 14 15
16 16 15 15 15 14 12 12 11 12 12 12 11 11 10 9 8 8 8 7 7 8 8 8 7 7 8 8 8 7 6 6 6 6 5 5 6 7 7 7 7 7 6 6 7 8 8 8 10 11 12 11 10 12 13 11 11 11 11 11 13 14 14
15 15 14 15 16 15 13 12 12 12 12 11 11 11 11 10 9 8 8 7 8 9 9 8 8 8 7 6 6 7 6 6 7 7 6 5 5 7 7 7 7 6 6 7 8 8 8 9 11 13 14 12 11 12 12 12 12 12 12 12 12 13 13
15 15 14 14 14 13 13 13 12 11 10 11 11 11 12 11 9 9 9 9 9 10 10 10 9 8 7 7 7 7 7 6 7 8 7 5 5 6 7 8 7 7 7 7 9 9 9 9 11 13 15 16 14 13 13 13 12 12 13 13 12 12 13
17 16 15 14 13 13 13 13 12 11 11 12 12 12 14 12 11 11 10 9 10 11 11 11 10 9 9 9 8 9 8 7 7 7 6 5 5 5 7 9 8 7 8 9 9 9 9 9 10 12 14 16 17 17 16 14 12 12 12 12 12 12 12
17 15 15 14 14 14 14 13 13 13 13 14 14 15 15 14 12 11 8 8 10 12 12 12 11 10 10 9 9 9 8 8 7 6 5 5 5 4 6 7 7 6 9 10 9 10 10 10 11 11 11 11 15 18 17 16 14 13 12 12 12 13 12
16 14 14 15 15 15 15 14 15 14 14 14 15 16 16 14 13 11 8 8 10 12 12 12 11 10 9 9 10 9 8 8 6 5 5 5 5 5 5 6 6 7 9 11 11 12 12 11 10 10 9 8 10 13 15 16 15 14 13 12 12 13 14
16 15 14 15 15 15 15 15 14 14 14 14 16 17 17 15 13 10 8 9 11 12 13 12 11 10 10 10 10 9 8 7 6 5 5 5 6 6 6 6 7 8 10 13 15 15 14 13 10 8 7 7 8 9 12 15 15 14 13 12 12 14 14
17 16 15 15 15 16 15 15 14 13 13 14 17 18 18 15 13 10 8 9 11 12 12 12 11 11 10 10 9 9 9 8 7 6 7 7 8 8 8 8 8 10 13 16 17 16 15 14 11 8 7 7 7 10 12 13 15 15 12 11 13 14 14
17 16 15 15 15 15 15 14 13 13 13 15 18 18 17 15 12 9 8 9 11 12 12 12 12 11 10 10 10 9 9 9 8 8 10 10 10 10 9 9 9 12 16 17 17 16 16 14 12 9 8 7 8 10 12 12 14 15 13 12 13 13 14
18 17 16 16 16 15 15 14 13 13 13 16 18 17 15 14 12 10 9 10 11 12 12 12 12 11 10 10 11 11 9 9 9 10 10 10 10 11 10 9 10 12 16 17 16 14 14 13 11 9 8 8 9 10 10 11 12 14 15 14 13 14 15
19 18 17 16 16 15 15 14 13 13 14 15 16 15 14 14 12 11 11 11 12 12 12 13 13 11 10 11 11 11 10 9 10 10 10 9 8 9 10 10 10 11 13 15 14 12 12 12 10 9 8 8 9 9 9 10 11 13 14 15 15 14 15
20 19 17 16 15 14 14 14 13 13 13 14 15 15 14 14 13 12 12 13 13 13 13 14 14 13 12 12 11 11 11 10 9 9 9 8 8 8 9 9 10 10 10 12 12 10 11 11 9 9 8 8 9 9 9 9 10 11 13 15 15 14 16
19 18 16 15 14 13 13 14 14 13 13 13 14 15 15 14 13 13 14 14 14 15 15 15 15 14 13 13 12 11 10 10 10 9 8 8 7 7 7 7 8 9 9 10 10 9 9 10 9 9 9 8 9 9 10 10 9 10 12 13 14 14 15
19 19 18 16 14 13 13 14 13 13 13 13 14 15 15 14 13 13 13 14 15 15 15 14 14 13 12 12 12 11 10 10 9 9 8 7 6 6 6 6 7 8 8 8 8 8 8 9 9 9 9 9 9 9 10 10 10 10 11 12 13 14 15
21 21 20 17 14 13 13 13 12 12 13 14 14 14 15 15 14 12 13 14 14 15 15 13 13 12 12 11 11 10 10 9 8 8 8 7 6 6 5 6 7 8 7 6 7 8 8 8 8 9 10 10 10 11 12 12 11 11 11 12 13 13 14
19 19 18 17 15 14 13 13 12 12 13 13 13 13 14 16 14 13 13 14 14 14 14 13 12 12 11 11 11 10 9 8 8 7 7 6 6 6 5 5 6 7 7 7 7 9 9 9 10 10 11 11 11 12 14 14 14 14 13 13 14 14 14
17 17 18 18 16 15 14 13 13 12 12 11 11 12 13 16 15 14 14 14 14 15 15 13 13 13 12 11 11 10 9 8 7 7 7 6 5 5 5 5 5 6 6 6 6 7 8 10 10 10 11 12 12 12 14 15 16 17 15 15 15 15 16
16 19 20 19 18 17 15 14 13 12 11 10 10 11 12 14 15 14 14 14 15 15 15 14 13 12 12 12 10 10 9 9 8 7 7 7 7 6 5 5 5 6 6 6 6 6 7 9 10 12 13 14 14 14 14 15 18 19 18 18 17 17 18
15 20 21 20 20 20 18 15 13 13 12 10 10 11 12 14 15 14 13 13 15 15 14 13 12 11 11 11 10 9 9 9 9 7 7 6 6 6 6 5 6 6 7 7 7 7 8 9 10 12 15 16 17 16 15 15 17 19 19 19 18 18 19
14 18 22 22 21 21 20 17 13 12 11 9 9 11 12 13 15 15 14 13 14 14 13 12 12 11 10 10 10 9 9 9 9 8 7 7 6 6 6 7 7 7 8 8 8 9 10 10 11 12 14 16 18 19 18 17 17 18 19 19 19 19 19
11 13 17 19 17 16 17 18 14 11 11 10 9 9 11 11 13 15 14 13 13 13 13 13 12 11 10 10 10 10 9 9 9 9 9 8 8 9 8 9 9 10 10 9 10 11 11 12 13 13 14 15 17 19 20 20 19 19 19 19 18 18 19
9 9 10 11 11 14 18 19 15 11 10 11 10 9 10 10 11 13 14 13 13 13 13 12 12 12 11 11 11 11 11 11 11 11 11 12 13 12 11 11 11 12 12 12 12 12 14 14 14 15 15 16 17 19 20 21 22 22 23 22 19 18 19
7 8 8 9 12 17 20 20 17 13 11 12 10 9 10 10 10 12 12 13 13 13 12 12 12 13 12 12 12 12 12 13 13 14 15 16 16 14 13 14 14 13 14 15 14 14 15 16 16 17 17 17 19 20 21 23 24 24 26 25 23 22 22
9 8 7 8 12 15 16 17 17 15 14 14 12 12 11 10 11 11 11 12 12 12 13 13 13 14 14 14 14 13 13 14 14 16 17 17 17 16 16 17 17 17 18 19 18 16 15 17 17 18 19 19 20 21 22 23 24 25 26 27 27 27 25
10 8 8 7 9 10 11 11 12 11 12 12 12 12 11 11 12 12 11 12 11 12 13 14 15 16 16 16 17 16 16 16 16 17 18 19 19 18 19 19 19 20 20 21 21 18 17 18 18 19 21 21 22 23 24 25 26 26 27 27 28 27 26
7 7 7 7 6 6 7 7 8 8 8 8 9 11 10 10 13 13 13 13 12 12 14 15 15 16 17 17 19 19 19 19 19 19 19 19 20 21 22 22 21 21 22 23 23 21 19 19 19 20 22 23 24 25 25 27 29 29 29 28 27 27 26
7 7 7 7 7 7 6 6 6 6 6 6 7 9 8 8 10 12 13 14 13 14 16 16 16 16 17 17 17 18 18 19 18 17 15 15 17 19 22 23 22 22 23 23 23 22 20 20 19 20 22 24 26 27 27 28 30 30 29 27 25 25 25
10 10 9 9 9 8 8 6 5 5 4 4 3 5 7 8 8 9 10 11 12 13 15 15 14 14 15 15 16 17 17 16 16 14 12 13 14 15 18 21 23 25 24 23 22 21 20 20 19 20 21 24 27 28 28 28 27 25 25 26 25 25 24
13 12 12 12 11 11 10 9 8 7 6 5 4 2 1 3 4 5 6 6 6 7 9 11 11 11 12 13 15 16 15 14 15 15 14 13 12 12 14 18 22 25 25 25 25 23 21 21 21 22 24 25 27 28 26 26 25 23 24 24 24 23 23
11 11 11 11 10 10 9 9 8 8 8 7 5 5 4 3 2 1 3 4 5 4 4 6 7 8 9 10 12 13 13 12 13 15 16 15 14 13 13 16 21 23 22 21 22 23 22 21 22 24 25 26 28 28 24 21 21 22 22 21 22 23 23
6 7 7 7 6 6 6 6 6 6 6 5 5 4 4 4 3 3 3 3 5 6 6 6 7 7 8 9 9 10 11 11 12 14 15 17 18 17 17 18 21 22 19 18 20 22 23 22 22 22 24 25 26 25 22 19 18 20 21 21 22 23 22
2 2 2 2 1 1 1 1 1 1 1 1 2 3 4 3 3 2 2 2 5 8 9 9 9 9 9 10 11 12 12 12 13 13 14 16 18 19 19 20 21 21 19 18 20 21 21 22 23 23 25 24 23 21 19 18 18 21 23 24 23 22 20

ECMWFFLT1_850_spd_084.txt.gz
Wind_Speed
15 14 16 15 12 13 14 13 12 12 13 13 12 11 10 9 9 10 11 9 8 9 10 10 10 10 9 9 10 10 11 10 9 8 8 8 9 9 9 6 6 8 9 8 7 11 14 15 13 11 11 12 12 11 9 8 9 9 11 13 12 11 10
15 15 18 17 15 15 14 13 12 12 13 12 12 12 11 10 9 9 10 9 7 8 10 9 9 9 8 9 9 9 10 9 9 9 9 8 9 10 10 8 7 9 9 8 8 8 11 16 15 13 13 12 12 12 9 8 10 11 13 15 13 10 8
16 17 20 19 17 16 14 12 11 11 11 10 11 12 12 11 10 10 10 10 9 8 7 8 8 8 7 7 8 8 8 9 9 9 10 9 9 10 10 9 8 8 8 10 12 10 10 12 13 14 13 11 12 13 10 8 10 13 14 16 14 8 4
18 19 20 19 18 16 14 13 12 11 11 11 11 11 11 10 10 11 10 10 11 8 5 5 6 7 6 6 6 6 6 7 8 9 9 8 9 10 10 10 8 6 7 10 11 11 11 12 14 15 12 10 13 13 11 10 11 15 16 16 14 7 2
20 18 18 18 18 16 15 15 14 13 12 12 11 10 10 9 10 11 9 8 11 10 5 3 3 3 5 7 6 6 6 6 6 8 9 8 10 10 9 9 8 8 8 8 9 10 11 13 15 16 13 12 13 12 11 13 16 17 15 14 14 9 5
21 18 16 17 17 16 16 16 16 14 12 12 11 11 11 10 10 11 9 8 10 12 9 7 6 4 3 6 7 7 6 5 6 7 7 7 9 10 8 8 7 9 9 7 7 9 11 13 14 15 15 13 14 13 12 16 19 18 13 11 9 8 11
22 18 16 18 17 16 16 16 15 13 12 12 12 11 11 10 10 10 10 9 9 12 12 11 11 8 5 4 5 6 6 5 6 6 6 6 8 8 7 7 6 7 9 8 7 9 12 14 16 17 17 16 14 13 14 17 20 18 14 10 8 9 13
21 18 17 17 16 16 16 16 14 12 11 11 11 11 11 11 12 12 11 11 9 10 10 9 8 9 9 5 4 6 6 5 6 7 6 7 8 7 7 8 6 7 10 9 7 9 11 14 17 16 16 19 19 15 15 18 18 17 16 14 13 11 10
20 18 17 17 16 16 16 14 13 13 11 11 10 11 13 12 11 11 10 10 8 7 7 7 7 11 10 4 5 8 6 6 7 7 7 8 9 8 8 8 9 9 10 9 9 10 10 13 16 13 12 20 24 21 18 17 18 19 17 15 13 8 8
19 18 18 18 17 16 15 13 14 14 13 12 11 13 14 11 10 10 9 8 9 9 9 9 9 13 9 4 6 9 7 7 8 6 6 7 9 9 9 10 11 10 9 8 10 11 10 12 14 12 12 17 21 23 22 19 19 20 17 14 12 9 10
18 18 18 19 19 17 16 14 13 13 14 14 14 14 14 12 11 9 9 9 11 11 12 10 10 12 9 6 8 7 5 7 8 7 6 6 8 10 10 10 10 9 8 8 10 10 10 11 12 12 13 14 16 20 22 21 21 19 16 14 13 12 12
18 19 19 19 19 17 16 16 14 14 15 15 14 14 13 12 12 10 7 8 11 13 13 11 11 11 8 8 9 6 7 9 6 6 6 6 8 9 10 10 9 8 8 9 10 10 10 10 11 13 12 12 16 19 20 20 20 18 16 16 15 12 11
19 18 17 19 20 17 15 16 17 15 14 13 13 13 12 11 11 9 7 8 11 13 12 11 10 9 9 9 8 6 9 8 5 5 6 7 8 9 10 10 10 10 10 9 10 11 11 10 10 9 8 10 15 18 19 18 18 18 16 16 16 12 11
19 18 17 20 22 18 13 14 17 16 13 12 13 13 12 11 9 7 7 9 10 11 11 11 11 9 9 9 7 7 9 8 6 6 6 6 7 7 9 10 10 11 11 11 11 12 11 10 8 7 6 7 11 16 18 18 18 18 17 15 15 12 10
21 19 19 20 20 18 13 12 14 14 13 13 14 13 12 11 9 8 9 9 9 10 10 11 11 9 9 9 9 9 10 8 7 7 7 7 6 7 9 9 10 11 11 12 13 12 12 10 9 9 7 6 7 12 16 17 18 19 18 17 15 13 12
20 20 20 20 19 18 15 12 12 12 13 14 14 13 12 11 10 9 10 9 9 9 10 11 11 9 10 10 10 10 9 8 9 9 9 9 8 8 8 8 10 11 12 14 12 10 12 11 10 9 7 6 6 9 15 18 17 19 19 17 16 16 15
21 20 21 21 20 19 17 15 13 13 13 14 15 14 12 11 10 9 10 9 9 9 9 10 10 9 10 11 10 10 9 9 10 10 9 9 9 8 6 7 11 12 12 15 11 9 11 10 7 7 8 8 6 8 14 16 14 16 17 16 16 17 16
23 22 22 21 20 20 18 16 14 14 14 15 15 15 13 11 9 9 9 9 9 9 9 10 9 9 10 11 9 9 10 10 10 9 8 9 8 7 5 6 9 11 12 13 10 9 11 8 5 7 8 7 7 8 10 12 12 13 13 14 16 17 16
23 23 23 20 19 19 18 16 14 14 14 14 14 13 13 12 9 9 10 9 9 9 9 9 9 9 11 11 10 9 10 10 9 9 9 8 7 7 8 8 8 9 11 12 9 8 9 6 4 8 7 6 9 11 10 10 11 11 10 11 14 15 17
22 23 22 19 17 17 16 15 14 14 14 14 13 12 13 13 11 9 10 10 9 10 9 9 9 9 10 11 10 10 11 10 9 9 9 7 6 7 7 8 7 7 9 11 10 10 10 8 6 8 9 7 8 10 9 10 10 10 10 12 13 14 16
22 23 22 20 17 15 15 14 12 12 14 14 13 12 12 13 12 11 11 10 10 10 10 9 10 9 9 10 10 11 11 10 9 10 9 6 7 8 5 5 5 4 5 8 9 10 11 12 11 11 12 11 9 7 9 12 12 10 10 13 14 13 15
22 21 21 21 19 16 17 15 11 11 12 12 13 12 10 13 14 11 11 11 11 11 11 11 11 11 10 10 9 9 10 9 8 9 7 6 7 7 5 4 4 4 4 5 6 8 8 10 11 11 11 13 12 9 10 13 14 12 10 12 15 14 15
23 21 21 21 18 16 17 16 12 12 12 12 13 12 10 12 13 12 11 12 12 12 12 12 12 12 12 11 10 9 9 7 8 8 7 5 6 6 5 6 6 6 7 7 7 8 8 8 9 10 10 11 12 12 12 13 14 14 12 12 14 14 16
24 23 22 21 18 17 17 16 13 12 12 12 13 12 11 12 13 12 12 13 14 14 12 12 13 12 11 12 12 11 9 7 7 7 6 5 5 4 6 9 8 7 9 10 10 9 10 10 10 12 13 13 12 13 13 13 14 15 15 15 16 16 17
24 24 22 22 21 19 19 18 15 14 14 13 12 12 11 11 12 12 11 13 15 16 13 12 14 14 12 12 13 12 10 7 5 5 5 5 5 4 5 6 6 6 7 9 10 10 9 10 10 11 13 15 15 15 16 16 16 17 18 19 20 20 21
23 23 21 21 21 22 21 20 19 18 17 15 15 14 12 11 11 10 10 12 13 15 15 13 14 15 13 12 11 11 9 7 5 5 5 6 6 6 6 6 5 5 5 7 9 11 11 11 10 10 11 13 15 16 17 18 19 19 21 22 23 23 23
17 19 20 20 21 21 21 20 19 19 19 17 16 16 15 15 15 12 11 12 11 11 11 11 12 14 15 13 12 10 9 8 6 5 6 7 7 6 7 8 8 7 7 9 9 10 12 15 15 14 12 12 12 13 14 16 18 19 21 23 25 26 25
12 14 17 19 19 18 17 16 15 15 16 16 17 17 16 16 17 14 12 11 10 8 7 7 8 11 12 11 10 9 9 8 7 6 6 6 6 7 8 9 10 9 9 12 12 12 14 16 18 18 16 14 12 12 14 15 16 17 19 21 24 27 27
11 13 15 17 18 18 18 17 15 15 14 14 15 17 17 16 16 16 13 11 10 9 6 4 5 6 7 8 8 8 8 8 9 8 8 8 8 8 9 10 11 11 12 14 15 16 17 18 18 18 17 16 14 15 17 17 18 19 19 19 21 23 25
10 10 12 14 17 19 18 17 17 16 14 13 13 15 15 14 14 15 15 12 11 9 7 5 4 4 6 7 8 8 8 8 9 9 9 9 9 9 9 11 13 15 16 17 18 18 19 19 18 18 17 18 18 18 20 20 21 22 22 22 23 22 23
14 13 11 12 13 16 16 16 16 15 13 12 13 14 14 13 12 12 13 12 10 9 8 7 7 8 11 11 11 11 10 10 10 10 10 10 10 11 12 14 16 18 19 19 19 18 18 19 19 18 19 21 20 20 22 23 24 25 25 25 26 25 24
15 14 13 12 10 12 13 15 15 13 11 12 13 13 13 12 10 10 11 12 11 11 11 11 12 13 15 14 13 12 12 12 12 12 12 12 11 12 13 13 15 17 18 17 15 12 13 15 17 18 20 21 22 23 25 25 26 27 28 28 27 27 27
19 17 16 13 11 9 7 10 13 11 8 8 10 10 11 11 10 9 10 11 11 10 11 12 13 15 15 14 12 12 12 14 14 13 13 12 11 10 10 10 11 12 11 9 9 8 10 13 15 17 18 21 23 24 25 26 26 27 28 28 28 28 30
20 20 18 17 17 15 11 8 10 10 7 6 7 9 10 11 12 12 13 14 14 14 15 15 14 13 14 13 12 13 13 13 13 13 12 10 8 9 9 7 7 8 7 7 8 10 11 13 14 16 17 19 21 22 23 25 25 25 27 28 29 29 30
20 18 17 17 18 18 17 15 13 9 7 7 7 6 6 7 9 11 11 12 13 13 14 11 7 5 6 6 7 8 9 8 8 9 9 7 7 8 8 7 8 9 10 11 12 13 14 15 16 17 18 19 20 20 21 22 23 24 26 28 29 30 30
18 17 17 17 18 18 17 16 14 11 10 10 11 11 10 8 7 7 6 5 5 5 5 4 3 2 1 2 3 4 5 5 5 6 6 6 7 9 9 9 11 12 14 15 17 17 18 19 19 19 19 19 20 20 20 20 21 23 24 26 28 29 29
15 16 16 15 16 16 16 15 13 11 10 11 11 10 8 8 9 8 7 8 7 4 2 1 2 2 2 3 5 5 5 5 6 7 7 8 9 10 11 12 14 15 17 18 19 20 21 21 20 21 20 20 20 20 19 19 19 20 23 25 27 28 29

ECMWFFLT1_850_spd_087.txt.gz
Wind_Speed
20 19 21 22 21 21 22 21 20 21 20 18 17 16 16 16 15 14 12 11 12 11 10 10 10 13 13 13 15 15 14 14 13 12 13 14 14 14 14 10 9 12 15 13 12 15 18 18 14 12 12 12 11 11 11 11 10 9 10 10 10 9 7
20 19 20 21 21 21 21 20 20 20 19 17 17 16 17 16 15 15 14 13 13 12 10 9 10 11 11 11 12 13 14 14 13 11 12 13 13 13 14 12 12 16 15 12 12 13 15 18 17 16 16 15 13 11 10 10 10 10 11 12 11 9 8
23 22 22 22 21 21 21 20 19 18 17 16 16 16 16 15 14 14 16 15 13 12 13 12 12 12 11 10 11 12 13 13 13 12 11 12 12 13 14 13 16 18 16 16 16 15 15 15 17 19 18 16 15 13 11 12 13 13 12 11 11 10 8
26 24 23 23 22 21 21 20 19 17 16 16 15 16 16 15 15 15 15 14 13 13 13 13 12 11 11 12 12 12 12 12 12 11 11 11 13 14 14 13 14 15 15 16 17 17 16 15 18 21 18 15 16 15 15 16 15 14 12 9 8 7 6
25 23 23 24 23 21 21 20 18 17 17 16 16 16 15 16 16 15 15 14 13 12 11 11 11 10 11 12 12 12 12 12 11 11 12 12 12 15 15 14 12 12 12 14 15 16 15 14 18 21 19 17 16 17 19 20 17 13 9 7 5 2 4
22 20 21 23 22 21 20 20 19 18 18 17 17 16 15 16 16 16 17 16 14 12 11 11 10 9 10 11 12 12 12 12 11 11 12 12 13 14 14 12 11 12 13 14 14 15 14 16 19 20 20 18 17 20 22 21 17 13 8 6 4 1 4
20 19 20 21 20 19 19 19 18 18 18 17 17 17 16 16 16 16 18 18 15 13 12 12 10 9 10 11 11 12 12 11 11 11 11 11 13 14 13 12 11 11 13 14 15 16 16 17 19 21 21 19 18 22 23 20 17 15 13 9 6 5 8
18 18 19 19 18 18 17 18 17 16 17 17 17 17 16 16 17 16 18 19 17 15 14 13 11 10 11 11 10 10 11 11 11 11 11 11 12 13 12 12 11 11 12 12 15 17 16 16 17 19 22 22 23 23 22 21 18 16 15 12 6 7 11
17 18 19 19 18 17 17 17 16 16 16 16 15 15 16 17 18 17 16 17 18 17 15 14 12 11 10 10 10 10 10 10 10 10 10 11 12 12 12 11 11 12 12 11 13 16 16 15 16 16 18 21 26 27 25 22 18 17 16 12 9 9 11
17 18 18 18 18 18 18 18 17 16 15 15 15 17 17 17 17 16 14 14 15 16 15 15 15 12 9 9 11 12 11 11 10 9 10 11 11 12 12 11 12 13 12 10 13 16 15 15 15 13 14 18 22 28 28 23 19 20 18 13 10 11 11
18 17 16 18 19 20 20 19 19 18 16 17 18 18 17 16 16 15 14 14 15 16 17 18 16 12 9 9 11 12 12 12 11 11 11 11 11 12 12 12 12 13 12 12 15 16 15 15 14 13 15 17 19 22 26 27 23 20 18 16 11 8 11
19 18 17 19 21 22 22 22 21 19 18 20 20 18 16 16 15 14 14 16 17 18 18 19 16 12 10 10 10 11 12 12 11 12 12 12 12 13 12 12 12 13 13 13 16 16 16 16 14 15 18 18 18 19 24 28 25 20 18 17 12 8 11
20 19 19 21 22 23 23 23 23 21 21 21 20 18 17 16 15 13 14 18 20 19 18 19 16 12 11 11 11 12 11 10 10 12 13 13 14 14 13 12 11 12 12 12 13 14 16 16 15 17 19 19 18 19 23 25 23 20 19 15 10 8 11
20 20 21 22 23 24 23 23 22 21 21 20 19 18 18 16 14 11 15 20 21 19 19 18 15 13 12 12 12 13 11 8 9 10 11 12 13 13 13 12 11 11 11 12 12 12 14 14 13 15 16 18 20 18 20 23 20 18 17 13 9 8 10
20 21 22 23 24 24 22 21 21 20 19 18 18 17 15 14 11 11 17 21 21 20 19 17 15 14 13 12 13 13 11 10 9 8 8 10 12 13 12 11 11 11 11 13 14 13 13 12 12 12 10 12 19 20 18 20 19 16 16 15 13 10 10
20 21 22 23 24 22 20 19 19 18 18 18 18 15 12 11 11 13 16 18 19 20 19 17 16 15 14 13 12 11 12 12 10 8 9 11 13 13 12 12 11 11 13 15 16 14 11 10 9 10 8 5 11 19 18 18 18 16 16 16 16 13 11
21 21 21 23 22 19 18 18 17 17 17 19 18 14 12 13 13 13 13 13 16 19 18 17 16 16 16 13 11 11 12 12 10 10 11 11 10 10 10 11 11 12 14 16 15 12 10 9 8 10 10 6 6 14 18 18 17 15 15 17 17 14 11
21 20 21 23 20 17 16 15 16 16 18 20 18 14 14 15 14 13 11 11 14 15 17 16 14 16 17 13 10 12 12 10 11 13 11 8 7 7 8 10 13 15 14 12 11 11 9 6 6 10 14 10 7 10 16 19 18 16 15 15 16 14 12
21 21 22 22 20 18 16 14 14 16 19 20 18 15 16 16 15 14 12 12 13 13 15 14 13 17 17 12 11 13 12 11 12 13 10 8 7 7 8 11 14 15 12 9 9 10 7 3 5 11 14 11 8 9 14 18 18 16 14 13 13 15 14
24 24 23 22 20 19 18 15 14 16 20 20 17 17 17 15 15 15 13 13 12 13 14 12 13 18 17 13 15 14 12 11 12 12 10 8 7 8 9 10 11 11 11 10 8 8 8 5 6 10 12 10 8 9 13 17 17 15 14 12 13 16 17
26 25 22 22 22 21 19 16 16 18 19 19 18 19 17 15 17 17 14 13 13 14 14 12 14 18 17 15 16 13 11 12 12 12 11 9 9 10 10 8 7 9 11 11 9 8 8 8 6 6 9 11 12 12 12 12 12 13 15 13 12 15 18
26 24 23 24 23 21 19 18 19 20 19 19 19 19 18 17 18 18 16 16 15 15 15 13 15 17 16 15 15 13 13 13 13 13 14 12 11 11 10 8 6 7 8 8 8 8 8 8 8 7 6 9 13 14 13 10 8 10 15 14 13 15 18
26 24 23 23 21 20 19 18 19 20 20 19 18 18 20 19 17 18 18 17 16 16 16 14 14 16 15 14 16 15 14 14 13 13 13 12 12 11 10 8 7 7 7 6 7 7 7 6 7 8 8 7 9 11 13 12 10 10 13 14 14 16 19
26 24 22 23 22 21 20 19 19 19 20 19 16 17 21 19 16 17 18 18 17 16 16 15 14 16 15 15 16 15 14 15 14 12 11 12 12 10 9 8 7 5 5 5 5 5 6 7 7 8 9 9 9 9 10 12 13 13 13 13 12 13 17
28 26 24 26 23 21 22 21 20 19 19 19 17 18 20 17 15 17 17 18 17 16 16 16 14 16 16 15 15 15 14 14 14 12 11 10 9 8 8 6 4 3 5 5 5 6 7 8 9 9 10 11 11 12 12 12 13 14 15 15 15 14 15
25 25 25 26 24 22 23 22 20 20 20 19 19 20 20 15 14 17 18 18 18 16 15 15 14 15 16 15 14 14 12 11 11 10 9 7 6 6 6 4 2 3 3 3 4 5 6 7 8 9 10 12 13 14 15 15 15 15 15 17 18 18 18
21 22 24 25 23 22 22 21 21 20 19 19 19 19 19 15 13 16 17 17 18 16 14 13 12 12 14 14 13 12 11 9 8 6 5 5 3 3 3 2 2 2 2 3 3 4 5 7 9 10 11 12 13 14 15 16 16 15 15 17 19 21 22
21 22 23 23 23 23 22 21 21 19 18 18 17 17 18 15 13 14 15 14 15 15 12 11 11 11 12 13 13 13 10 6 5 4 3 3 3 3 3 2 2 3 3 4 5 6 8 10 11 13 13 14 14 14 15 15 15 13 13 14 17 19 20
23 23 24 23 22 23 22 20 20 19 18 16 15 14 16 15 11 12 13 12 12 12 11 11 11 11 11 11 10 10 8 5 4 4 4 4 4 4 4 5 5 5 5 7 8 10 11 13 14 15 15 16 16 16 16 16 15 15 15 15 16 18 19
17 19 21 22 22 24 23 20 18 17 16 15 15 14 14 14 12 11 11 11 10 11 12 12 12 11 11 10 7 5 4 3 3 4 4 4 4 4 5 6 7 8 10 11 11 12 13 14 15 16 16 16 16 16 17 17 18 18 19 19 19 20 21
13 14 16 17 18 20 20 18 17 16 16 16 17 16 15 14 14 12 11 11 10 10 11 11 11 10 9 9 7 5 3 3 4 5 6 7 6 7 7 8 9 10 11 12 12 12 12 12 12 12 14 15 15 16 17 18 20 21 21 21 21 22 23
15 14 13 12 13 15 16 16 16 16 16 16 17 17 15 13 12 11 10 10 9 9 8 8 6 6 6 5 6 7 8 8 7 9 10 10 9 9 9 9 9 10 10 10 9 8 8 8 9 9 10 13 14 16 17 20 21 22 22 22 22 23 24
17 15 13 12 13 15 15 16 16 15 15 14 16 16 14 11 10 9 9 8 7 6 6 4 3 3 4 5 7 8 8 8 8 9 10 9 9 9 10 9 10 9 8 6 6 5 6 7 9 9 10 11 13 15 16 18 20 21 22 23 23 23 23
24 22 19 15 13 14 15 15 14 14 13 13 13 13 11 9 9 9 8 6 5 4 4 4 4 4 5 6 7 8 8 8 8 9 8 8 8 9 9 8 8 7 6 6 6 7 8 10 11 12 13 14 15 16 17 18 19 21 22 23 23 24 23
24 23 23 23 21 17 16 15 13 12 11 11 11 10 9 9 8 8 7 5 4 4 4 5 6 6 6 5 5 6 7 7 7 7 6 6 7 7 6 6 6 7 7 8 9 10 12 13 14 15 16 16 17 18 19 19 20 20 21 21 22 22 22
23 24 24 24 24 22 20 19 18 16 13 11 10 9 8 8 8 8 8 8 7 6 6 6 6 5 5 5 4 4 5 5 6 5 4 5 5 5 5 5 6 8 9 11 12 13 14 15 16 16 17 17 17 18 18 19 19 20 21 21 20 21 21
19 21 22 23 23 21 19 18 19 18 17 16 14 13 11 11 11 13 13 13 12 11 9 8 7 6 5 4 4 4 4 4 4 4 5 5 6 6 6 7 8 9 10 11 12 13 14 14 15 15 16 16 16 17 17 17 18 20 20 20 19 19 21

ECMWFFLT1_850_spd_093.txt.gz
Wind_Speed
22 20 18 17 17 17 17 16 15 15 15 16 18 19 18 17 17 17 16 16 16 16 16 15 15 15 16 16 16 16 16 17 17 15 13 14 15 14 15 14 12 9 5 3 7 10 11 13 12 9 8 8 8 7 7 7 6 6 5 5 4 4 5
21 19 18 17 16 16 17 16 16 16 17 19 19 18 18 18 17 17 17 17 16 16 16 15 14 14 15 15 15 15 16 17 17 15 13 13 14 13 14 14 13 11 7 4 6 9 9 10 12 12 11 10 8 7 7 7 6 6 5 4 4 5 5
21 20 20 18 16 16 17 17 17 17 19 21 20 19 18 18 17 17 17 17 16 16 16 15 14 14 14 14 13 13 14 15 15 15 13 11 12 13 14 14 13 12 9 8 9 11 9 8 9 12 13 12 10 9 8 7 6 5 4 3 4 4 5
21 20 19 18 17 17 17 18 18 18 19 20 20 19 18 18 18 17 17 17 16 16 16 16 15 14 14 14 14 13 13 14 14 14 12 11 11 13 14 13 13 12 10 9 9 9 9 8 7 11 13 12 12 11 9 8 5 4 5 5 4 3 3
21 20 19 17 18 18 19 20 19 18 18 20 20 19 19 19 18 18 18 18 17 16 16 16 15 14 14 15 14 14 14 14 13 13 13 12 11 12 13 13 12 11 9 8 8 7 7 7 6 9 14 14 12 12 11 9 7 6 7 6 5 3 2
21 21 20 19 19 20 21 22 21 19 19 20 21 20 20 20 18 18 18 17 16 15 15 15 15 15 15 15 14 14 15 14 13 13 13 12 11 11 12 12 11 10 8 7 7 7 7 8 7 8 13 14 12 12 12 10 8 9 9 7 5 2 2
23 22 22 21 20 20 22 23 22 20 20 21 21 20 19 19 18 17 16 16 15 15 15 16 16 16 15 14 14 14 14 13 12 13 12 12 11 11 11 11 10 9 8 8 8 7 7 8 8 8 12 14 11 12 13 10 8 9 9 8 5 3 2
25 24 22 21 21 21 22 22 22 21 20 20 20 19 18 18 18 17 16 16 16 15 16 17 17 17 16 14 14 14 14 13 13 13 13 13 11 10 10 10 9 9 8 8 8 7 7 7 7 8 11 13 12 13 14 11 9 9 8 7 6 4 4
25 24 22 22 22 22 21 21 22 22 21 20 20 19 18 18 17 17 18 18 17 17 17 17 18 17 15 14 14 15 15 14 14 13 13 13 11 10 10 9 9 8 8 8 8 8 7 7 7 7 10 12 10 12 14 14 12 11 10 9 6 4 4
25 25 23 22 22 23 22 22 21 22 21 20 20 19 18 18 18 18 18 19 18 17 17 17 17 15 14 14 14 14 15 14 13 13 13 12 11 10 9 10 10 9 8 8 8 8 7 7 8 7 9 11 11 8 10 12 12 12 12 10 7 4 4
26 26 24 21 21 24 25 23 23 23 22 20 20 20 19 20 20 20 20 20 19 17 17 17 16 14 13 14 14 13 12 11 11 11 11 12 11 10 10 11 11 10 9 8 7 8 8 8 8 8 9 12 12 11 9 8 9 9 10 9 6 3 4
26 26 24 23 22 24 26 25 24 24 22 21 21 20 20 20 21 21 21 21 20 18 17 16 14 13 14 14 13 12 12 11 11 11 11 11 11 11 11 11 11 10 9 9 8 7 7 8 8 9 10 11 12 12 11 10 8 7 7 8 5 2 3
25 25 25 25 23 24 26 25 24 23 21 21 21 20 20 21 22 22 22 21 20 18 17 16 14 13 15 15 13 13 13 12 12 11 11 11 11 11 11 10 10 10 10 9 9 8 8 8 8 7 8 9 11 12 12 12 10 6 5 8 6 4 3
24 24 25 26 24 25 26 24 22 21 21 21 22 22 22 21 22 22 22 21 20 17 16 15 14 14 15 15 14 14 14 13 13 12 12 11 11 11 10 10 9 9 9 9 8 8 8 7 7 7 7 8 10 12 12 13 11 7 5 6 6 6 6
22 22 24 25 23 24 24 21 21 21 21 22 22 23 24 23 22 21 21 20 18 17 16 14 14 14 14 15 15 14 13 13 13 12 12 11 11 10 10 9 9 8 8 8 7 7 7 7 7 7 7 9 9 10 11 12 12 9 6 5 4 4 6
18 20 23 23 22 22 20 20 21 22 22 22 22 23 24 23 21 20 19 18 18 18 16 15 15 13 13 14 14 14 13 12 11 11 10 11 10 10 10 9 9 8 8 7 6 6 7 7 6 6 7 9 9 9 11 12 12 10 7 6 5 5 5
16 20 21 20 19 18 18 21 22 22 23 23 23 22 22 20 19 18 17 18 20 20 18 17 15 13 12 13 14 13 12 10 9 9 9 10 10 10 10 9 9 9 8 7 7 7 8 7 6 5 5 7 7 8 10 11 11 11 9 8 7 7 7
17 19 20 19 18 18 20 22 22 23 23 23 22 22 21 19 18 17 18 19 21 20 20 18 16 13 13 14 14 13 11 9 7 8 9 10 10 9 9 9 9 9 9 8 8 8 9 8 6 5 5 5 6 7 10 11 12 12 11 9 9 9 9
16 17 18 18 19 20 22 22 23 24 23 22 22 22 20 18 18 18 19 21 22 21 20 18 15 13 14 15 14 12 10 8 7 9 10 10 10 9 8 9 9 9 10 10 10 9 8 7 4 4 5 5 6 7 9 11 12 13 12 11 10 10 10
13 16 18 18 19 21 23 25 25 25 24 24 23 20 18 18 17 18 21 22 22 21 20 17 15 14 14 15 14 12 11 10 10 11 11 11 10 8 8 9 10 10 11 11 10 8 6 4 3 5 7 8 10 10 10 10 11 12 13 13 12 12 11
13 15 18 19 20 20 23 27 28 25 23 23 21 17 17 18 18 20 22 21 20 20 19 18 16 15 15 15 14 14 13 13 13 12 12 11 10 9 10 11 12 11 10 8 7 6 5 3 3 6 9 11 12 12 11 10 11 12 14 14 14 14 14
13 14 16 18 19 20 22 25 25 23 22 21 18 16 17 18 20 24 24 21 20 20 19 18 17 16 16 16 16 16 16 15 14 12 11 11 11 11 12 13 12 10 8 8 8 7 6 4 4 6 8 9 10 12 12 12 12 13 14 16 16 16 16
12 14 16 17 19 20 21 22 22 22 24 22 19 18 18 17 20 24 25 22 21 21 20 19 17 16 17 16 16 17 18 16 14 12 11 12 13 13 12 11 10 9 8 8 7 6 5 5 4 5 6 6 7 9 12 14 15 15 16 17 17 17 18
13 15 17 18 20 22 23 23 23 23 24 24 20 19 19 18 18 20 23 24 22 21 21 20 18 18 17 16 16 17 18 17 15 12 11 13 14 13 12 11 10 9 8 7 7 6 6 5 5 4 5 6 7 8 9 11 13 15 16 17 18 18 19
15 16 18 20 21 22 22 23 23 22 22 23 21 20 20 19 17 18 20 23 23 21 20 20 19 18 17 16 16 17 18 18 15 13 12 13 14 13 12 11 11 10 9 9 8 7 6 6 5 4 5 6 6 7 7 7 9 11 13 14 16 17 17
15 17 19 21 22 21 21 21 21 22 22 22 21 21 20 18 18 17 18 21 22 21 21 20 19 18 17 16 16 16 18 18 15 14 15 15 14 13 12 11 11 10 10 9 8 7 7 7 7 6 6 6 6 6 7 7 8 9 10 12 13 14 14
13 17 20 23 23 23 23 22 21 22 23 22 22 21 19 19 19 18 18 20 20 20 21 21 19 17 17 17 16 16 18 18 17 17 17 17 16 14 13 12 10 9 9 9 8 8 8 7 7 7 7 6 6 7 7 8 9 10 11 12 13 13 14
13 17 21 23 25 24 24 24 25 24 23 22 21 20 19 19 20 19 19 18 19 20 21 19 18 17 16 16 17 18 19 20 19 19 18 17 16 14 12 11 9 7 8 8 8 8 7 7 7 7 7 8 8 9 10 10 11 12 12 13 14 15 15
12 15 17 19 22 23 23 24 25 25 23 22 20 19 18 19 20 20 20 19 19 20 21 19 17 16 16 17 18 19 20 20 20 19 17 15 13 11 10 9 8 7 7 7 7 7 7 7 8 9 10 11 12 13 14 14 14 14 14 15 16 16 15
13 16 16 16 18 21 21 22 25 26 25 23 20 19 18 20 22 22 20 20 21 21 20 20 19 18 18 18 18 19 21 21 19 17 15 13 11 10 8 7 6 6 7 6 6 7 9 10 11 13 14 15 15 15 15 14 13 13 14 15 16 16 16
13 16 17 17 19 21 21 21 23 25 26 23 20 19 19 21 25 24 22 21 22 22 22 22 21 20 20 20 21 22 21 19 16 15 14 13 11 10 8 6 6 6 6 7 9 10 12 13 14 15 15 15 14 13 11 11 11 11 12 13 14 15 16
11 13 14 15 17 19 22 24 22 20 24 26 23 22 23 24 26 26 22 21 22 23 24 24 22 21 20 20 21 20 17 15 14 15 15 14 12 10 8 7 6 7 8 9 11 13 14 15 15 15 14 11 10 9 8 8 9 9 10 11 13 14 15
11 14 15 14 15 15 18 21 18 14 19 26 25 25 28 29 28 27 24 22 24 25 24 24 22 20 18 17 16 15 14 14 16 17 16 15 13 11 10 9 10 11 11 12 14 15 16 17 16 14 11 9 8 8 9 10 11 12 12 13 13 15 15
9 15 18 18 20 20 17 16 16 12 16 24 25 25 26 28 29 28 25 23 23 23 22 22 20 17 15 13 11 9 9 10 12 13 14 14 12 11 11 11 12 13 13 13 16 17 17 16 14 12 11 10 11 11 12 13 14 14 14 14 15 15 16
8 13 15 12 15 19 18 17 17 14 12 16 20 19 17 17 20 23 22 19 17 16 16 16 15 13 12 11 10 9 9 10 10 11 12 12 12 12 12 13 13 13 13 14 15 16 14 12 12 11 12 12 12 12 12 13 13 13 13 13 14 14 15
8 10 13 12 10 13 16 18 20 19 17 15 14 14 13 12 13 14 14 12 11 9 10 11 11 10 10 10 10 11 11 12 12 12 12 12 13 13 13 12 12 12 12 12 12 12 11 10 11 11 12 11 12 12 12 12 12 12 12 13 13 14 15
7 7 9 13 13 14 17 20 22 24 24 23 21 20 18 17 16 14 14 14 13 11 9 9 10 9 9 9 10 11 12 12 13 12 11 11 11 11 10 10 9 10 10 9 9 9 9 10 11 11 10 10 10 10 10 10 11 11 11 11 11 12 12

ECMWFFLT1_850_spd_096.txt.gz
Wind_Speed
20 18 17 15 13 12 13 13 13 14 13 13 16 19 19 19 18 17 17 18 17 15 15 15 15 16 16 17 17 17 17 18 17 15 13 13 14 13 13 11 10 8 6 3 3 5 7 10 10 9 9 7 6 6 6 6 5 4 4 2 2 2 2
22 20 17 15 14 13 13 13 13 14 14 14 16 19 21 20 18 19 19 19 18 17 16 16 15 16 17 17 17 17 17 17 16 14 12 11 11 10 11 12 12 10 8 5 3 4 6 8 9 11 11 9 8 7 6 6 5 4 3 2 2 3 3
23 22 19 16 15 14 15 14 13 14 15 15 16 19 21 20 18 19 20 19 18 17 17 16 15 16 16 16 16 16 15 15 15 15 13 11 9 10 11 12 13 12 9 6 4 5 7 7 6 9 12 11 10 7 6 6 6 5 3 3 3 3 2
23 23 21 19 16 15 16 15 14 15 15 16 18 19 20 19 19 20 20 19 17 16 16 15 15 15 15 15 15 15 14 14 14 14 13 12 11 11 12 12 12 11 9 6 5 5 7 7 5 7 11 11 9 8 7 6 5 5 4 3 3 2 2
23 24 23 20 16 16 16 16 15 16 17 18 20 21 21 19 19 19 19 18 17 16 15 15 15 15 15 14 14 14 14 13 13 14 13 13 12 12 12 12 11 10 8 6 5 4 5 6 5 6 10 11 10 10 9 7 6 6 6 5 4 2 2
23 23 23 21 16 15 16 17 17 17 19 20 22 23 22 20 19 18 18 18 17 16 15 14 15 15 15 14 14 14 14 13 13 13 13 12 12 12 11 10 10 9 8 6 4 3 5 6 6 5 9 13 13 12 10 9 7 6 6 6 4 2 2
24 24 23 20 16 14 15 16 17 17 19 21 22 23 21 19 18 17 17 17 16 16 15 14 15 15 14 13 13 13 14 13 12 12 12 12 12 11 11 10 9 8 7 6 5 4 4 5 6 5 7 13 14 12 12 10 8 7 7 7 4 2 2
26 25 23 20 16 14 14 15 16 18 20 20 20 20 20 18 17 17 16 16 16 16 15 15 15 15 14 13 12 12 12 12 12 12 12 12 12 11 10 9 9 8 6 6 6 5 3 3 4 4 4 10 15 13 11 10 9 9 8 8 5 2 2
28 26 24 21 18 16 14 14 16 18 20 20 18 19 19 18 17 17 16 15 16 16 16 15 15 15 14 13 13 13 12 12 12 12 12 12 11 10 9 9 8 7 6 6 6 5 3 2 3 3 2 6 10 10 8 8 9 10 10 8 6 2 1
27 25 24 21 19 17 15 14 15 19 22 20 18 18 18 17 16 17 16 16 16 16 16 15 15 15 14 14 13 12 12 12 12 12 12 12 11 11 10 9 9 8 7 7 5 4 4 4 4 3 2 4 6 5 4 3 4 7 10 8 5 3 1
25 24 24 22 20 18 16 15 17 19 21 19 17 17 18 17 16 17 17 17 16 16 15 15 15 15 14 14 14 12 12 12 13 12 12 12 12 12 11 10 9 9 8 6 4 4 5 5 4 3 3 4 6 6 3 1 2 1 5 8 5 3 1
23 23 24 23 21 20 17 16 15 15 16 17 17 17 17 17 17 17 18 17 17 17 16 16 16 15 15 15 14 13 13 13 13 13 13 13 13 12 11 10 10 9 8 6 5 5 5 5 4 3 3 5 7 6 4 3 3 4 1 6 6 3 1
22 22 24 24 22 19 16 13 12 12 14 17 17 17 17 17 17 18 17 17 17 17 16 16 17 16 15 15 14 13 13 13 14 13 13 13 13 13 11 10 9 9 8 8 7 6 6 5 5 4 3 5 6 6 4 4 3 4 3 7 7 4 3
19 19 22 23 20 15 13 12 12 13 15 17 18 17 17 18 18 18 18 17 17 17 16 16 16 15 15 15 14 13 13 13 13 12 11 12 12 11 10 10 10 10 9 8 8 7 6 5 6 5 5 5 5 5 4 3 3 2 2 5 6 4 3
15 16 18 19 15 11 13 14 13 15 16 18 19 18 17 18 18 18 18 18 17 17 16 15 15 14 14 14 13 13 13 12 11 11 11 11 11 10 10 11 10 9 8 8 8 7 6 6 7 6 5 4 4 4 3 3 2 1 1 3 4 2 1
14 15 16 17 14 10 13 14 14 17 19 20 19 17 17 17 18 18 19 18 18 17 16 14 14 13 13 13 13 13 12 11 11 11 10 10 10 10 11 11 10 9 9 8 8 7 7 8 8 6 5 4 3 3 3 3 2 1 0 2 2 1 1
13 14 15 14 11 11 13 15 17 19 20 20 19 17 17 17 17 18 19 19 19 17 16 15 13 12 12 12 13 12 11 11 10 10 10 10 11 11 11 11 10 10 9 9 9 8 9 9 8 7 6 4 2 2 2 3 2 1 1 1 0 1 1
10 12 13 11 11 12 13 16 18 19 20 20 19 18 18 18 19 20 20 19 19 18 16 15 13 12 12 12 12 11 10 10 10 10 10 10 10 10 11 10 10 10 10 10 9 9 10 10 10 9 8 6 4 2 2 2 2 1 2 1 2 3 3
9 10 11 10 12 14 14 16 18 19 20 20 19 20 21 20 20 20 18 17 17 17 16 15 14 13 12 12 12 11 10 10 10 10 11 11 11 10 10 9 9 10 9 9 9 10 11 12 10 9 8 6 5 3 2 2 1 2 2 2 3 3 4
10 10 10 10 12 14 16 17 18 20 20 21 21 22 22 20 19 18 16 15 15 16 16 15 15 14 13 13 14 13 11 10 10 11 11 12 11 9 9 9 9 9 9 9 10 11 12 11 9 7 6 5 4 2 1 1 1 2 2 3 4 4 5
8 9 11 11 12 15 17 18 19 20 22 22 22 22 22 21 19 16 14 14 15 15 16 16 17 15 14 15 15 13 11 10 10 11 12 12 11 9 9 9 9 9 10 11 11 11 10 8 6 4 2 3 4 4 4 4 4 3 4 5 5 6 7
8 9 11 12 13 15 17 18 19 21 23 22 21 22 22 20 17 15 15 16 16 16 16 17 17 15 14 16 16 13 11 10 11 12 13 13 12 10 10 11 11 12 13 12 11 9 8 6 4 2 1 2 3 5 6 7 6 5 5 6 6 7 8
8 9 10 12 14 15 17 19 20 21 22 21 21 22 20 18 16 15 15 17 18 18 17 17 16 14 14 16 16 14 12 13 13 13 14 14 13 12 13 13 13 13 12 11 10 8 7 5 3 2 2 2 2 2 5 7 7 7 7 8 8 9 9
7 8 9 11 13 15 17 18 19 21 23 23 22 21 19 17 17 16 16 17 18 18 17 17 16 13 13 15 15 15 15 15 13 12 12 13 14 14 15 15 13 12 12 10 9 7 5 4 3 3 4 4 3 1 2 4 5 6 8 8 9 9 10
6 8 9 11 13 15 16 17 19 21 24 24 23 20 18 17 17 17 18 18 18 18 17 17 15 14 14 15 15 16 17 16 13 11 11 13 15 15 14 14 12 11 10 9 8 6 5 4 4 3 3 3 3 2 2 3 4 5 6 7 8 8 9
6 8 8 10 13 14 15 17 19 21 24 25 23 20 17 15 16 18 20 20 19 18 18 17 15 14 15 15 15 17 18 16 13 12 12 14 15 13 12 11 11 10 9 8 7 6 5 4 3 3 3 3 3 3 3 4 4 5 6 7 8 9 10
3 7 8 10 12 14 15 16 18 20 24 25 23 21 18 16 16 18 19 20 20 19 18 17 15 16 16 14 15 17 18 16 14 13 13 14 13 11 10 9 8 8 8 7 6 5 5 4 4 4 4 4 4 4 4 4 5 6 7 8 9 10 11
1 6 10 11 11 13 16 17 18 19 21 23 22 21 20 17 16 17 17 19 20 20 18 17 16 17 16 15 15 17 18 17 16 15 15 14 13 11 10 8 7 7 6 6 6 5 5 4 4 4 3 3 4 4 6 6 7 8 8 9 10 10 11
3 4 9 11 13 15 16 16 17 18 20 21 20 19 19 17 16 16 16 17 19 19 18 17 17 17 16 15 15 16 18 19 17 16 16 15 13 12 10 9 8 7 6 6 6 5 4 4 3 3 4 5 7 8 9 10 10 10 10 10 10 10 11
5 3 4 7 10 14 15 16 16 17 18 18 19 17 17 17 16 15 16 16 17 17 17 17 17 17 16 15 15 16 18 19 18 17 17 16 14 13 11 10 8 7 6 6 5 4 3 3 4 5 7 9 10 11 11 10 10 10 9 9 9 9 10
7 3 1 2 3 6 11 15 15 16 17 18 18 16 16 16 16 16 16 16 16 16 17 17 17 16 16 16 16 16 18 19 19 19 18 17 15 14 12 11 9 7 6 5 4 4 4 5 7 8 10 11 11 11 10 8 7 7 7 7 7 8 9
7 5 1 4 3 4 6 8 8 12 16 17 17 16 16 15 16 17 17 17 17 18 19 18 18 18 18 18 19 19 20 22 23 22 20 18 17 15 13 11 9 7 7 6 6 6 7 8 9 10 11 11 11 9 7 6 6 6 6 7 8 8 9
6 5 3 4 5 6 7 7 7 8 12 16 18 18 16 16 18 18 18 17 18 20 20 20 20 20 20 20 21 21 22 21 20 20 18 17 16 14 12 11 9 8 8 8 8 7 8 11 12 12 12 11 10 7 6 6 7 8 9 10 11 11 11
6 5 2 2 5 6 7 9 8 5 8 14 17 15 14 15 17 19 19 19 20 21 22 23 23 23 24 24 22 19 16 13 11 12 13 12 11 9 9 10 9 10 9 8 8 7 9 11 12 11 11 9 8 7 6 8 10 11 12 12 12 12 12
5 7 7 6 6 8 9 8 8 9 9 10 12 11 13 16 19 21 22 20 19 19 19 21 22 21 21 22 19 14 11 9 10 10 9 9 11 11 10 10 10 9 8 8 8 9 10 10 10 9 8 7 6 6 8 9 10 11 11 11 11 10 9
3 4 8 10 9 10 13 13 13 12 10 11 14 14 13 15 17 20 22 19 16 13 11 11 12 11 10 11 11 10 10 10 10 8 7 9 10 10 9 9 8 8 8 9 9 10 10 10 8 6 6 5 5 6 7 8 8 8 8 8 8 7 7
7 3 3 6 7 7 10 12 12 11 9 10 13 12 11 10 11 13 14 13 11 9 6 5 6 5 5 5 6 7 9 9 9 7 6 6 6 5 6 7 7 7 8 8 8 8 8 7 5 4 4 4 4 5 5 6 6 6 6 5 5 6 6

ECMWFFLT1_850_spd_102.txt.gz
Wind_Speed
10 10 10 11 12 13 13 13 11 11 12 15 16 16 16 17 16 17 19 19 20 22 23 23 23 21 20 20 20 19 18 18 18 16 15 16 17 16 16 16 14 11 9 7 7 6 6 9 10 10 10 9 7 8 8 7 7 7 5 5 5 4 4
10 10 11 11 12 13 13 12 11 10 11 13 15 16 17 17 16 17 19 21 21 21 21 23 22 20 19 20 20 19 17 17 17 17 15 16 16 15 16 16 12 11 9 8 7 6 6 8 11 12 11 10 8 8 8 9 9 7 5 5 6 5 5
9 10 11 12 13 14 13 12 11 10 11 12 14 15 16 17 16 17 19 21 21 20 20 21 20 19 19 19 19 18 19 18 17 18 18 16 15 15 16 14 11 11 10 8 7 6 6 6 7 10 11 11 10 8 8 8 8 6 6 5 5 5 5
10 10 11 12 13 14 13 12 11 10 11 12 13 14 16 16 16 18 20 21 20 19 20 20 19 19 20 20 20 19 19 19 18 19 20 18 16 16 16 12 12 13 12 10 9 8 8 6 6 9 10 10 10 9 8 8 7 6 6 5 4 5 3
11 12 12 13 13 12 12 10 9 10 12 13 13 13 15 17 17 19 21 21 19 18 20 20 19 19 20 21 21 21 21 20 20 20 19 18 17 16 15 13 13 14 13 12 11 9 8 7 6 8 9 9 9 7 8 10 10 7 6 4 3 3 2
13 14 14 14 13 12 10 9 9 10 12 13 13 13 15 18 19 20 22 23 21 19 20 21 20 20 21 22 22 22 22 21 21 20 18 19 18 17 15 14 14 14 12 10 8 7 8 7 7 7 8 9 9 8 8 10 9 7 5 4 4 3 3
13 14 14 14 14 12 11 10 10 11 12 15 16 15 16 18 20 22 24 25 22 20 21 22 22 22 22 23 22 22 21 21 21 20 19 18 17 16 14 13 13 13 11 9 7 7 8 8 8 8 9 9 8 8 8 8 7 6 5 5 5 5 4
14 14 14 14 13 14 14 12 11 12 13 16 18 18 18 18 20 22 24 26 24 23 23 22 22 24 24 22 21 21 20 20 20 19 17 16 15 15 14 13 13 13 11 10 9 8 8 9 8 9 11 11 9 8 8 8 8 7 7 7 6 6 5
15 15 15 14 13 13 15 14 13 14 15 16 17 19 19 19 20 20 22 24 24 22 22 22 22 24 25 23 21 20 20 19 19 18 16 15 15 16 16 15 15 14 12 11 10 9 9 9 9 9 10 11 11 10 9 8 9 8 8 8 8 7 6
14 14 15 14 12 14 15 15 14 15 16 17 17 18 18 19 19 20 21 22 20 19 19 19 20 20 20 21 20 18 18 19 19 18 17 15 16 17 16 16 15 13 12 12 11 10 11 10 10 10 10 10 11 11 10 10 10 10 10 9 9 8 8
14 14 15 14 13 15 14 14 15 15 17 17 17 17 17 18 18 19 20 20 19 19 19 18 17 15 15 16 17 16 16 16 16 16 17 15 16 16 16 15 13 12 12 12 12 11 12 11 10 10 9 9 9 8 9 10 10 10 10 10 9 7 9
14 15 16 14 14 15 15 16 17 15 16 18 18 18 18 19 19 19 21 20 19 20 19 18 17 16 14 15 15 13 12 13 14 14 15 15 15 15 14 13 12 11 11 12 12 12 12 11 11 10 10 10 10 8 6 6 8 9 10 11 9 8 9
15 15 16 15 15 15 14 17 17 14 16 19 20 19 20 21 20 20 22 21 20 20 18 18 18 17 16 15 15 13 12 13 14 13 13 13 13 13 13 12 11 11 11 12 13 12 12 12 12 11 10 10 11 10 7 6 7 10 10 11 10 9 9
14 14 14 14 14 15 14 14 15 15 17 19 20 21 21 22 22 21 22 22 21 21 19 19 20 19 16 14 14 15 14 13 13 12 12 11 11 12 12 11 10 10 11 13 12 12 12 12 12 12 11 11 12 12 9 7 8 11 13 12 10 9 10
10 10 11 11 13 16 15 13 15 16 18 20 21 21 22 23 23 22 21 22 21 21 21 20 20 19 18 16 16 16 15 15 14 13 12 12 12 12 13 12 12 12 13 13 13 12 13 13 13 12 11 11 12 12 11 7 8 12 14 13 11 9 10
9 9 10 10 12 14 13 13 14 16 18 20 20 22 23 23 24 22 22 23 23 22 21 21 19 19 19 18 16 16 17 16 16 15 15 14 13 13 14 14 14 14 14 14 13 13 12 13 13 12 11 11 11 11 11 9 9 12 14 13 11 10 10
11 11 11 11 12 12 12 13 14 15 18 20 21 21 22 23 23 23 23 24 24 23 22 21 20 20 20 19 18 18 18 18 18 17 16 15 14 14 15 15 15 15 15 15 14 13 12 13 13 12 12 12 11 13 13 11 10 11 13 13 12 9 9
11 11 11 11 11 12 13 14 15 16 18 20 19 19 20 22 24 24 24 24 24 24 23 22 21 22 22 22 20 18 18 18 18 17 15 15 14 14 15 16 15 15 15 15 14 13 13 14 13 13 13 12 12 14 14 12 11 11 13 13 12 11 10
12 12 11 11 11 13 13 14 15 17 20 21 19 19 21 22 24 25 25 24 23 22 21 20 20 22 22 22 21 18 17 16 15 14 13 14 14 15 15 15 15 15 16 15 15 14 14 14 14 13 13 13 13 14 14 13 12 12 13 13 12 12 11
11 11 11 10 11 12 12 12 13 15 20 21 19 20 21 22 24 24 23 23 21 20 18 17 18 20 21 21 20 19 17 16 13 13 14 14 14 15 15 15 15 15 15 15 15 15 15 15 14 14 14 13 13 14 15 14 13 13 12 12 12 12 11
8 9 10 10 10 11 11 11 12 14 18 19 19 20 21 21 21 21 22 23 22 20 18 17 18 18 20 22 21 19 18 16 15 15 15 14 15 15 14 14 14 14 15 15 15 15 15 16 15 14 15 14 14 14 14 13 13 12 12 11 11 11 11
6 6 7 7 7 8 10 11 12 13 14 16 18 19 18 18 19 21 22 21 20 20 18 17 18 18 18 20 20 19 18 17 16 16 16 15 15 15 14 14 15 16 16 16 16 16 17 17 16 15 15 15 14 14 13 12 12 11 11 11 11 10 11
5 3 3 3 4 5 8 9 10 11 12 14 16 16 15 18 20 20 19 18 19 20 20 19 19 17 16 16 17 18 18 18 18 18 18 18 17 17 16 17 17 17 16 16 16 16 16 17 17 16 16 15 14 13 12 11 11 11 11 10 10 10 10
6 4 4 4 3 4 5 7 7 8 9 11 14 17 17 17 18 18 18 19 19 20 21 20 19 17 14 14 15 17 17 17 17 17 18 19 19 19 18 17 16 16 16 16 17 18 18 18 16 15 14 13 13 12 12 11 11 10 10 9 9 9 9
8 6 6 6 4 3 3 5 6 7 8 9 11 15 17 16 16 17 19 20 19 19 20 19 18 16 15 15 15 15 15 15 15 15 16 18 19 18 18 17 17 17 18 18 19 19 18 16 14 12 11 10 10 10 11 13 13 11 10 8 8 8 8
12 8 6 7 8 7 4 3 4 5 5 6 9 12 13 15 17 18 20 21 20 18 18 19 19 17 16 16 16 14 13 13 13 13 13 15 18 17 16 17 18 19 20 20 20 18 17 15 12 10 9 9 9 9 10 12 13 12 10 8 7 8 8
14 11 7 6 8 9 7 5 4 2 3 5 8 10 12 15 18 19 21 21 19 17 17 19 19 18 17 17 16 13 12 11 11 12 12 15 17 16 16 18 20 21 22 21 19 17 14 13 11 11 10 10 10 10 10 11 11 11 10 8 8 9 9
13 14 11 9 9 9 9 8 7 6 3 3 7 10 12 15 19 20 19 18 18 17 19 20 19 17 16 16 16 14 11 11 11 11 12 14 16 17 17 19 21 22 22 21 19 16 13 12 12 12 12 11 11 10 10 10 9 8 8 8 8 9 9
12 13 13 11 10 10 10 10 10 12 11 3 6 11 12 15 18 17 15 16 18 19 21 21 18 15 14 14 14 14 12 11 11 11 11 13 15 18 19 19 21 22 21 19 17 15 13 13 12 12 12 11 11 10 9 8 8 7 7 7 8 9 10
12 11 13 13 11 11 11 10 10 12 14 7 5 11 12 14 15 15 14 15 16 18 21 22 17 13 12 12 13 13 14 15 13 11 12 14 17 20 22 22 22 21 19 17 16 15 14 12 11 11 10 10 9 8 8 7 7 6 6 6 7 8 8
14 12 12 14 14 12 11 10 10 12 13 8 9 11 12 12 12 13 13 12 11 12 15 18 16 12 11 12 12 12 16 19 17 14 15 18 19 20 21 21 20 18 17 17 16 15 14 12 10 9 8 7 6 6 6 6 6 6 6 7 7 7 7
15 13 12 13 13 13 13 11 11 13 14 12 11 11 10 10 10 11 9 9 11 12 12 14 13 10 10 10 10 11 15 19 18 16 17 18 19 19 18 17 16 16 16 16 16 15 14 12 10 7 5 4 4 4 5 7 7 7 7 7 8 8 7
17 14 12 10 11 12 13 12 12 14 14 13 11 10 10 9 8 9 8 6 7 10 11 13 11 10 10 10 10 10 14 18 19 19 21 20 19 18 18 17 17 17 16 16 15 14 13 11 8 5 3 2 3 4 5 7 7 7 6 6 8 8 7
17 15 13 10 10 11 12 12 13 14 14 12 9 9 8 6 6 10 10 7 5 6 8 10 10 10 10 10 9 9 12 16 19 21 23 23 21 22 21 20 20 19 17 16 14 11 9 7 5 3 2 3 4 6 6 7 8 7 6 5 7 7 7
14 15 14 11 10 10 11 12 13 14 14 12 10 9 7 4 5 8 10 10 8 6 6 7 8 9 9 8 7 5 7 11 15 18 21 24 23 22 20 17 16 16 14 13 11 8 7 6 4 3 4 4 6 7 8 8 9 8 6 5 6 6 5
14 14 13 12 12 12 12 11 12 13 13 13 11 10 7 5 6 8 9 11 10 9 8 7 7 7 7 6 6 4 3 4 8 11 14 16 16 16 14 13 13 12 11 10 9 8 6 5 4 4 5 6 7 7 7 7 7 6 6 5 5 4 4
16 15 13 11 11 12 12 10 11 12 13 14 14 14 12 10 10 12 13 14 14 13 12 10 9 8 7 6 5 6 6 6 6 7 7 7 7 8 9 11 12 12 10 9 8 6 5 4 4 5 5 5 5 5 5 4 4 4 4 4 4 4 5

ECMWFFLT1_850_spd_105.txt.gz
Wind_Speed
10 11 12 12 10 10 11 10 10 11 12 14 15 16 17 17 16 16 16 16 16 16 17 19 20 18 17 17 19 19 18 19 20 20 19 17 19 20 21 20 18 15 11 10 11 11 10 10 10 10 10 10 10 10 11 10 10 9 7 7 7 6 6
10 11 12 12 11 12 13 11 12 13 14 16 16 17 18 18 18 17 17 17 16 16 18 18 18 19 20 18 18 19 19 20 19 19 19 18 17 17 18 19 18 16 13 10 11 11 10 10 11 12 12 12 10 11 11 11 10 8 8 8 7 5 6
9 10 11 12 12 13 13 13 15 17 18 18 19 19 19 19 19 18 17 16 15 16 18 18 18 19 21 20 19 19 19 20 19 19 20 17 16 16 17 18 19 17 15 14 12 11 11 12 11 13 14 14 12 12 12 12 11 9 8 8 6 5 5
10 11 12 13 13 14 15 16 19 22 22 21 21 22 21 20 18 17 17 15 15 16 17 18 18 18 20 20 19 18 19 20 18 20 21 19 18 18 17 18 18 17 15 14 14 14 12 11 11 13 15 14 12 12 12 12 10 9 8 7 7 6 5
12 12 13 13 13 15 17 20 23 25 24 23 24 25 23 20 19 17 16 15 15 15 16 16 16 17 19 20 20 19 20 20 20 21 21 20 19 18 18 17 16 15 14 13 14 14 11 11 12 14 14 13 12 12 12 12 10 10 9 8 7 6 5
14 14 15 15 16 17 20 23 25 26 27 26 27 26 24 21 20 18 15 15 15 14 15 16 16 17 19 20 21 21 21 21 22 21 19 20 20 18 18 17 15 15 15 15 15 12 12 12 12 13 14 14 13 12 12 12 11 10 10 9 8 7 5
14 14 16 17 18 20 23 25 27 27 27 26 25 24 22 20 21 19 15 14 15 15 16 16 16 17 19 21 20 18 19 21 21 20 18 18 19 18 17 15 14 15 15 16 15 13 13 14 13 14 17 16 14 12 13 13 11 11 10 10 9 8 7
14 14 16 18 19 21 24 25 25 26 25 22 20 19 18 17 19 18 15 15 16 16 17 18 18 18 19 21 19 17 19 18 18 19 19 18 18 17 16 15 14 15 15 16 16 14 14 14 13 15 18 19 17 14 13 13 13 12 11 11 10 9 9
14 14 16 18 20 22 23 24 24 25 24 22 20 18 16 15 17 17 16 17 17 17 18 20 19 18 19 20 20 19 20 17 15 17 18 18 17 15 16 17 16 17 17 17 16 14 14 15 13 13 16 18 17 15 15 15 14 14 12 12 12 11 9
12 12 14 18 20 22 24 25 25 26 26 24 22 20 17 16 16 17 16 17 17 17 19 20 19 18 19 20 21 19 19 17 16 15 16 16 15 14 16 17 18 19 19 18 16 14 14 15 15 13 14 15 15 15 15 16 15 15 14 12 13 12 10
11 12 15 19 21 22 23 23 25 28 27 24 22 21 18 16 16 16 16 17 17 18 19 20 19 19 19 20 20 19 18 18 16 16 16 17 15 15 17 18 19 21 20 19 18 16 14 15 16 14 13 14 14 13 15 16 16 16 15 13 14 13 13
11 13 16 20 22 24 24 22 24 27 26 22 21 20 19 18 17 16 17 17 17 18 19 19 18 18 19 20 20 20 20 19 18 18 17 17 17 17 19 20 21 21 21 21 20 18 15 16 16 15 14 15 14 13 14 16 16 16 16 15 15 14 13
12 15 16 19 21 24 25 24 25 27 25 22 21 19 19 19 17 17 17 18 19 20 20 20 19 18 19 20 20 21 21 20 19 19 19 19 19 19 20 21 22 22 22 22 20 17 16 16 15 14 14 13 13 12 11 13 16 16 14 14 14 14 13
13 15 15 17 19 20 22 23 23 25 24 21 21 20 20 19 18 17 18 18 20 21 21 20 20 19 20 20 20 20 20 20 19 19 19 19 19 20 20 19 20 19 20 21 20 17 16 16 14 14 14 12 13 12 9 13 17 16 14 14 13 13 14
13 15 15 16 17 17 18 18 20 23 22 21 21 21 19 18 19 19 19 20 21 21 21 20 20 20 21 21 21 20 20 19 19 18 18 18 18 19 19 17 17 18 18 20 19 16 17 17 15 14 14 14 15 13 9 12 17 17 15 16 14 13 14
14 16 16 16 16 17 17 18 20 22 22 22 21 19 18 18 19 20 20 20 20 19 19 19 19 19 20 22 21 21 21 21 19 19 17 16 17 18 18 18 18 18 18 18 18 17 18 18 16 14 14 15 16 15 10 10 15 17 17 17 15 13 13
14 15 15 15 16 17 17 18 18 18 19 20 19 17 17 16 17 19 20 20 19 18 18 18 19 19 20 20 20 21 21 19 18 19 18 17 17 17 17 18 19 19 18 17 19 19 18 18 17 17 16 15 16 17 15 11 13 16 18 17 15 13 13
13 14 14 13 15 16 17 17 16 16 17 17 18 17 16 16 16 17 18 19 19 18 17 17 18 20 20 20 21 21 19 17 17 19 20 19 19 18 17 18 19 19 18 18 19 18 17 18 18 17 16 15 15 17 16 12 12 15 16 16 14 13 13
13 14 13 13 13 15 16 17 16 15 16 16 18 18 16 15 14 13 14 17 19 17 14 15 16 18 17 17 18 18 17 17 17 18 20 19 18 19 18 18 18 18 18 19 19 16 15 17 17 16 16 14 14 16 15 13 13 15 15 15 14 14 13
13 13 13 12 12 14 15 15 15 15 15 15 16 16 14 13 13 12 13 13 15 15 14 16 16 15 13 14 14 14 15 15 15 17 18 17 19 20 18 17 17 17 18 17 16 15 16 17 16 16 17 16 16 17 15 13 14 15 14 14 14 13 13
12 12 13 12 12 12 13 14 15 15 15 14 14 13 11 13 13 13 13 12 13 14 14 16 16 14 14 15 14 14 14 13 14 16 17 18 20 19 16 17 17 16 16 16 16 16 17 17 16 16 17 16 16 17 16 13 13 14 14 14 14 13 13
11 11 12 12 13 13 12 13 15 15 14 14 14 13 11 13 13 12 12 12 13 14 14 15 16 15 15 15 14 15 14 13 13 15 15 17 19 17 15 16 17 15 15 16 16 15 15 13 13 15 17 13 13 17 18 15 14 15 15 13 13 13 13
12 11 11 12 13 13 12 12 13 13 13 13 13 13 12 12 13 12 9 9 10 12 13 15 15 14 14 14 15 15 15 14 15 16 16 16 17 16 15 14 15 15 14 15 15 15 14 12 11 14 17 13 11 16 17 15 14 15 15 14 13 13 13
13 11 10 11 12 12 11 10 9 9 10 11 12 13 12 12 11 11 10 10 10 11 12 14 15 14 13 13 15 15 15 16 16 17 17 17 17 16 15 13 13 14 14 14 15 14 14 14 12 13 15 14 13 15 15 14 14 13 13 14 13 12 12
14 12 11 11 11 11 10 8 7 8 8 7 8 9 10 11 10 10 11 10 11 12 12 13 16 15 13 12 13 13 14 15 16 17 17 17 16 15 14 13 14 15 15 14 15 14 14 15 15 15 16 15 14 14 14 14 14 13 11 12 13 14 11
14 13 11 10 11 11 10 9 8 7 7 6 5 4 5 7 8 10 11 10 11 12 13 16 18 16 13 10 9 10 12 13 14 15 14 14 14 14 14 14 15 16 15 14 14 14 15 16 15 15 15 15 15 15 14 14 13 13 10 8 10 12 9
13 13 11 9 9 9 10 12 13 12 9 7 5 3 4 7 7 10 13 12 12 13 15 18 19 16 13 10 8 8 9 10 11 11 11 12 13 13 13 14 15 15 15 14 15 16 16 16 16 15 14 15 14 13 14 14 15 15 13 9 8 10 9
13 13 11 9 8 9 11 12 14 15 14 10 5 4 5 7 8 9 12 13 13 12 14 18 18 16 13 12 11 9 7 7 9 10 10 11 12 12 12 13 14 15 16 16 16 17 17 16 15 15 14 13 12 12 12 14 15 15 15 13 10 9 10
13 13 11 9 8 10 11 12 14 14 14 12 7 4 4 6 8 9 11 12 12 13 15 17 18 16 14 12 12 9 7 6 7 7 9 10 10 11 10 10 13 16 17 18 18 18 17 15 14 13 12 11 11 11 11 12 13 12 12 11 10 8 8
12 12 11 9 8 9 10 12 14 13 13 13 10 6 4 3 2 2 5 6 9 12 14 17 18 16 13 12 11 9 9 9 8 8 8 8 8 11 11 11 15 17 18 20 20 17 15 13 11 10 10 10 10 10 10 10 10 10 9 9 8 7 8
10 11 11 11 10 9 11 13 13 13 13 14 13 11 10 10 10 9 7 6 5 3 8 15 17 14 12 11 10 9 9 9 9 7 7 8 9 12 14 15 15 16 17 19 18 15 14 13 12 11 10 9 9 9 9 8 8 8 8 7 7 8 8
10 10 10 10 10 10 11 13 14 14 15 16 15 13 12 12 11 11 10 9 8 5 6 12 12 11 10 8 9 8 6 7 8 4 4 7 10 12 16 18 16 16 17 17 15 13 14 13 11 10 9 8 7 7 7 7 7 5 5 6 7 8 8
12 11 10 10 10 9 10 12 14 15 16 16 16 14 12 10 8 8 10 10 9 8 10 9 7 7 8 6 6 6 5 9 13 9 6 8 11 14 16 16 14 14 15 15 14 13 13 12 11 10 10 9 6 5 6 7 6 4 3 5 6 6 6
13 13 12 11 9 8 9 10 12 13 14 14 14 13 12 11 11 10 9 9 9 8 8 6 3 3 5 3 4 4 2 3 7 9 9 10 13 16 15 13 13 15 15 15 15 14 13 12 11 9 9 7 5 5 5 5 8 9 7 7 5 2 2
14 15 14 12 10 9 8 8 10 11 12 11 11 11 10 10 11 11 8 9 9 8 8 7 4 3 3 2 2 1 2 3 3 4 5 6 10 14 14 14 15 17 16 15 16 15 14 12 9 7 7 6 6 8 7 6 9 10 7 5 3 3 2
16 16 15 13 11 11 9 8 10 11 11 9 8 9 10 10 12 12 12 14 13 10 10 11 9 7 7 7 7 6 6 6 5 3 1 4 7 10 12 14 15 15 14 14 14 12 10 8 7 6 7 7 8 9 8 6 7 5 3 3 3 3 2
20 19 17 14 12 11 9 8 10 13 13 12 10 10 11 11 12 14 15 17 18 16 14 14 12 10 9 9 10 10 10 11 10 6 5 7 9 9 9 10 11 10 10 10 10 9 8 7 6 6 6 6 6 7 6 4 3 2 2 4 4 3 3

ECMWFFLT1_850_spd_108.txt.gz
Wind_Speed
4 5 5 5 7 10 12 13 15 14 13 12 13 13 14 14 15 15 15 14 13 13 14 14 15 15 16 17 19 21 21 22 24 23 22 22 24 26 26 23 21 17 13 13 14 13 12 14 15 15 13 13 13 13 14 16 14 13 11 10 11 12 11
4 5 6 7 10 13 16 16 16 16 16 15 14 15 15 15 16 16 15 15 15 14 14 15 14 14 15 15 18 20 20 20 22 21 20 20 21 22 23 24 24 22 17 13 13 14 12 12 14 15 15 14 14 14 16 16 14 13 12 11 11 11 11
5 5 7 10 13 16 18 18 18 18 19 19 17 16 16 16 17 16 16 17 17 16 16 15 13 13 14 15 17 19 20 19 18 20 19 18 18 18 19 22 24 23 19 15 16 15 13 12 13 14 16 16 16 16 16 14 13 14 13 13 13 12 12
5 6 10 14 16 17 18 20 21 21 21 21 19 17 17 18 17 16 16 18 18 18 17 17 16 14 14 15 17 20 19 18 18 20 21 20 19 18 18 19 21 22 20 17 16 15 14 14 13 13 15 15 15 15 16 14 14 14 13 13 13 12 11
7 8 13 16 17 19 20 21 23 24 23 22 22 21 19 19 17 16 18 19 19 19 18 18 17 16 15 15 18 20 19 18 18 20 21 20 18 17 16 15 16 19 18 15 14 14 15 15 13 13 14 15 14 13 15 15 15 13 13 13 11 10 10
11 11 14 17 18 19 21 23 25 26 25 25 25 23 21 20 19 18 19 20 21 20 18 18 17 17 17 17 18 20 19 18 18 19 19 19 18 17 15 14 15 16 16 15 14 14 15 14 13 13 15 16 15 13 14 16 15 12 12 12 11 11 10
13 12 14 16 17 18 20 23 25 27 28 27 26 24 22 21 20 19 20 21 22 21 19 18 18 18 18 18 18 20 19 18 18 18 18 18 18 18 16 15 16 15 15 16 16 16 15 15 14 15 17 18 16 13 14 15 15 14 13 13 13 11 10
13 13 13 14 16 17 18 20 23 25 26 27 27 25 23 21 20 19 19 20 21 22 21 19 18 18 18 18 18 19 19 19 18 18 19 19 19 19 18 16 17 17 16 17 18 17 15 14 14 16 19 20 18 15 15 15 15 15 15 15 15 12 9
14 15 14 14 15 16 18 20 23 24 25 27 28 28 25 24 22 19 18 19 20 22 23 21 19 19 19 19 19 20 19 19 18 18 19 20 19 18 17 17 18 18 17 18 18 17 16 15 15 16 19 22 21 19 18 17 17 17 16 17 17 13 9
12 12 12 13 14 16 18 21 23 25 26 27 29 29 28 27 25 20 19 20 21 23 24 22 20 20 20 19 20 20 20 20 19 17 18 19 19 18 17 17 18 19 18 18 18 17 16 17 18 18 18 20 21 21 21 20 19 19 18 18 19 15 11
10 11 12 15 17 18 19 21 23 25 26 27 29 29 28 28 26 21 19 21 22 24 24 23 21 20 20 20 19 20 21 20 19 18 18 18 19 19 17 17 19 20 19 19 19 19 17 17 19 18 17 20 21 20 21 21 20 20 19 19 19 16 13
9 10 12 15 17 18 19 21 22 25 26 27 27 28 27 27 24 19 18 21 23 23 24 23 21 20 21 20 19 20 20 19 18 18 18 18 18 18 18 19 20 21 21 20 20 20 18 16 16 17 18 21 20 17 19 20 20 21 20 20 19 14 14
11 11 12 14 16 16 19 21 22 23 25 26 26 27 26 24 22 18 17 21 23 22 23 22 21 20 21 20 18 20 20 19 17 17 17 17 17 18 18 19 20 21 22 22 22 21 20 17 17 17 17 19 19 18 19 20 21 22 21 21 18 15 18
12 13 14 15 16 16 18 21 22 22 23 24 25 24 22 20 18 15 15 20 22 22 22 22 21 21 21 19 18 20 20 19 17 16 16 16 16 17 17 18 19 20 21 22 23 22 20 18 18 19 18 19 19 19 19 19 21 23 22 22 20 18 19
13 14 16 16 16 16 18 20 21 22 22 23 22 20 18 18 16 14 14 18 21 21 20 20 19 18 18 17 18 18 18 18 17 16 16 16 16 17 18 19 19 20 22 22 23 23 21 19 19 20 19 19 19 18 18 18 22 24 23 23 22 20 18
14 14 15 16 15 15 16 17 19 20 21 20 19 16 14 15 14 13 14 16 18 18 17 19 18 15 14 15 16 17 17 17 16 16 16 16 16 17 18 20 19 21 23 23 23 23 21 21 20 20 20 20 19 19 17 18 21 23 23 23 21 20 19
13 13 13 15 15 14 15 16 17 18 18 18 16 14 12 12 11 10 11 12 13 14 15 17 17 15 13 13 14 13 14 14 14 15 15 14 15 16 18 19 19 20 23 23 23 22 22 24 23 21 21 20 20 19 17 16 18 21 23 23 21 19 19
15 16 16 17 16 14 14 15 17 17 17 16 15 12 11 10 9 9 9 9 9 11 12 12 13 14 12 12 13 13 13 14 14 14 13 13 15 16 17 18 18 19 22 22 21 22 23 25 23 22 20 18 18 19 18 19 19 20 20 21 21 19 17
16 17 17 18 17 16 16 16 17 17 16 15 14 12 11 9 8 8 8 6 6 9 10 10 11 13 13 12 13 14 14 14 14 14 14 14 16 16 16 17 18 19 20 20 20 21 22 20 20 21 18 15 16 17 18 20 22 21 20 19 20 19 17
16 15 16 17 17 17 17 17 17 16 15 15 13 12 11 10 8 8 7 5 5 7 10 12 12 12 12 11 12 14 14 15 15 14 14 15 16 16 16 17 17 17 19 19 19 21 21 19 18 18 17 16 16 15 17 20 19 20 20 19 18 18 16
15 13 14 16 16 17 16 16 16 16 15 14 13 11 11 11 9 7 7 6 5 6 9 12 12 10 10 9 11 13 13 14 15 15 14 14 16 16 16 17 16 15 18 19 19 20 20 19 19 18 17 18 17 16 19 20 17 18 20 19 17 16 16
15 13 12 13 15 16 16 14 13 13 14 14 13 12 11 10 8 6 6 6 6 6 8 11 12 11 9 8 9 11 12 12 13 14 14 13 14 15 16 16 15 14 17 18 18 19 18 16 17 17 16 17 17 18 20 21 19 18 19 19 18 17 17
16 14 12 12 14 15 16 14 12 11 11 12 12 12 11 9 7 5 6 6 5 6 8 11 11 11 10 10 10 11 12 12 12 13 14 13 14 15 15 16 15 14 15 16 17 18 16 14 14 14 15 15 16 18 21 22 21 19 18 18 17 17 18
16 16 15 14 15 15 16 15 13 10 10 9 10 11 10 8 6 5 4 3 4 5 8 10 10 8 8 11 11 11 13 13 14 15 15 14 15 16 16 15 15 14 13 16 17 16 15 14 14 14 15 16 18 20 20 21 22 21 20 19 17 17 17
15 16 16 15 14 15 15 15 14 11 8 8 9 9 7 7 6 5 2 4 7 7 7 7 8 6 6 7 8 9 10 11 12 13 14 15 16 16 15 14 13 13 13 16 17 16 15 15 14 15 16 16 18 19 19 18 20 22 21 20 19 19 18
16 16 15 13 13 14 15 16 15 14 12 10 10 9 8 8 8 7 4 3 6 7 7 6 6 6 6 5 5 7 7 6 8 10 12 14 14 14 13 11 11 13 15 16 16 15 15 15 15 15 16 16 17 17 17 18 19 20 20 19 18 18 18
16 16 14 12 12 14 16 17 17 17 16 14 13 13 12 11 10 9 6 5 5 7 7 6 7 7 7 7 7 7 6 4 6 9 10 9 10 11 11 9 11 13 14 15 15 14 14 16 16 17 17 17 17 16 15 15 15 17 18 18 17 18 18
15 15 13 12 12 14 16 18 19 19 19 17 17 18 17 15 13 10 6 4 6 7 7 7 8 9 8 8 8 7 5 2 2 5 7 7 9 10 11 10 12 13 14 14 14 15 17 18 17 17 17 17 16 15 13 11 11 12 14 15 17 19 19
13 14 13 13 13 14 16 18 20 21 20 19 20 22 21 19 16 13 10 5 2 3 4 7 10 10 9 8 6 5 3 3 2 3 6 7 8 11 12 12 11 12 13 14 15 15 17 18 17 16 16 16 16 15 14 12 10 9 9 11 14 16 16
14 15 14 13 13 15 17 18 19 20 20 20 21 22 23 22 20 18 16 12 8 6 3 6 11 10 9 8 6 4 4 4 4 5 7 8 8 10 13 12 13 15 15 15 16 15 15 16 15 14 14 15 14 14 14 14 12 11 10 11 13 13 13
13 14 14 13 13 15 17 18 19 20 20 19 19 20 21 22 21 20 18 16 13 11 9 11 11 8 6 5 4 7 6 6 10 10 9 8 7 10 13 13 14 15 16 18 20 18 15 14 13 12 12 12 12 12 13 13 13 12 11 12 12 12 12
13 13 13 13 13 14 15 16 17 19 19 19 19 20 21 21 21 20 19 17 16 14 13 14 11 8 10 9 8 9 4 4 8 10 8 6 6 10 16 16 14 15 17 19 20 19 16 14 13 12 12 12 12 12 13 12 12 12 12 12 12 12 12
13 13 13 13 11 12 13 14 15 16 17 18 19 19 20 20 20 21 19 17 15 15 15 14 10 8 12 13 11 10 5 5 8 8 6 5 7 11 16 17 16 16 17 17 16 15 15 15 15 14 13 13 12 12 12 12 11 10 10 10 10 9 9
15 15 15 13 10 10 12 12 13 15 16 16 16 16 18 17 17 19 20 17 15 14 14 14 11 9 10 12 12 12 11 12 13 11 8 6 8 11 15 18 18 16 14 14 13 13 13 14 15 13 12 12 12 11 11 12 10 9 8 7 6 5 5
18 17 16 14 12 11 12 13 14 15 15 15 14 15 15 15 15 17 18 18 17 16 14 13 13 12 12 13 13 14 16 17 15 11 9 8 9 11 13 15 16 14 12 11 11 12 14 16 16 14 12 12 11 10 10 11 11 10 8 6 4 3 2
23 21 18 15 13 13 13 15 16 17 16 15 15 16 15 15 15 17 17 18 19 19 18 17 16 15 15 16 16 17 17 17 14 10 8 8 9 10 9 9 10 10 10 9 7 9 12 14 14 13 12 11 10 9 9 10 10 8 5 4 4 6 5
28 27 23 19 17 17 17 17 19 20 19 18 18 19 18 17 17 19 21 21 22 22 21 21 21 19 17 17 17 17 16 15 13 9 7 8 10 10 8 7 6 6 6 5 5 4 6 8 10 11 12 12 12 11 9 9 8 6 6 8 9 10 7

ECMWFFLT1_850_spd_111.txt.gz
Wind_Speed
10 10 10 11 13 14 13 14 15 16 17 17 18 16 14 14 12 13 14 15 17 19 20 21 22 23 23 22 23 25 26 27 27 28 26 25 25 26 26 25 26 23 16 17 20 18 17 19 21 20 18 18 17 16 15 15 15 13 12 12 13 13 13
10 10 9 10 13 14 14 15 16 17 18 19 18 15 13 13 13 16 18 17 18 20 20 21 21 21 23 23 23 25 26 27 26 26 26 26 25 26 26 25 27 24 17 17 19 18 18 18 20 22 21 20 18 18 17 16 15 15 14 13 13 14 14
9 11 11 11 13 15 15 16 17 18 20 20 17 14 16 18 17 18 20 20 20 20 19 20 21 22 23 24 23 24 26 27 26 25 25 25 25 25 25 25 27 26 20 19 19 19 18 16 16 19 22 22 20 19 19 18 17 16 16 15 14 15 15
7 10 13 14 14 15 16 17 19 20 22 21 19 18 19 20 19 19 20 21 21 21 19 19 22 24 23 24 24 23 25 27 25 24 24 23 24 24 23 23 28 29 25 23 21 20 19 18 15 16 19 20 19 18 19 19 19 18 18 17 15 15 16
7 10 12 14 15 15 16 17 19 21 22 22 22 22 21 20 20 20 21 22 22 22 21 20 22 24 22 22 23 22 24 26 24 24 24 22 23 23 22 22 25 28 27 26 24 22 20 18 17 15 17 19 18 17 17 18 18 19 19 17 16 15 16
9 11 12 13 13 13 14 15 16 18 20 21 21 21 20 20 21 22 24 24 24 23 22 21 21 22 22 22 22 22 23 26 26 25 24 23 23 22 22 21 22 24 25 26 26 23 19 18 18 16 16 18 19 18 17 17 19 20 19 18 17 16 16
10 11 12 13 13 13 14 14 15 16 18 20 20 19 20 21 22 23 24 25 26 26 24 22 22 22 22 22 22 21 21 23 26 27 26 25 24 22 22 21 21 22 24 26 26 24 22 21 20 19 18 18 18 17 18 18 20 20 20 19 19 18 17
10 11 11 12 12 14 15 15 16 18 19 20 20 20 20 22 23 23 25 26 26 26 25 23 24 24 22 21 21 21 19 21 25 26 27 26 25 24 23 21 21 21 23 25 26 25 23 21 20 20 20 21 20 18 19 21 21 20 19 19 20 18 17
8 8 8 8 9 11 13 15 17 18 19 19 20 21 21 23 24 24 25 26 24 24 24 24 24 23 21 20 19 20 19 20 23 25 26 26 25 24 23 22 21 21 21 23 24 24 22 19 19 20 21 23 24 23 22 23 24 21 19 20 20 18 15
5 5 5 6 8 10 12 15 18 18 17 18 19 21 22 24 24 23 23 23 22 22 23 23 23 21 19 18 18 18 19 19 21 24 25 25 24 24 24 23 22 21 21 22 22 22 20 19 20 21 21 23 25 26 26 27 26 23 21 21 21 20 18
6 6 7 9 10 12 14 16 17 16 16 18 20 21 23 24 24 22 21 19 19 20 22 21 19 17 18 18 17 18 19 19 21 24 25 25 25 24 24 23 22 21 21 21 21 21 20 21 22 22 22 24 25 25 25 27 27 24 22 23 22 22 21
8 9 10 12 13 15 16 16 17 17 16 18 20 21 23 24 22 21 19 17 16 16 18 18 16 15 16 17 17 18 20 20 21 24 25 25 25 24 25 24 22 22 21 21 22 22 22 23 23 23 23 24 26 25 23 24 26 24 23 25 25 22 20
9 10 10 11 13 14 15 16 17 17 17 18 19 20 21 21 19 17 15 14 13 12 13 15 15 14 14 15 16 18 19 19 20 22 24 25 25 24 24 24 21 21 22 23 24 24 23 24 24 25 24 23 27 27 23 23 25 25 25 26 27 23 18
9 10 11 10 11 12 13 14 15 15 16 17 18 18 18 17 14 13 11 10 10 10 11 13 14 14 14 14 14 15 16 18 19 19 20 22 23 23 23 23 22 22 23 24 24 24 24 24 23 25 24 23 27 27 25 24 25 26 28 26 25 23 17
10 10 11 11 11 11 12 12 13 15 15 15 16 16 15 13 11 11 9 8 9 10 11 11 13 14 14 14 14 14 15 17 18 19 19 19 21 22 22 23 23 23 23 23 25 25 25 24 22 23 23 23 26 27 26 26 25 26 28 26 24 23 19
13 13 14 14 13 13 13 13 13 14 14 14 14 14 13 13 11 11 10 9 10 10 9 9 10 12 12 13 15 16 15 15 17 19 19 19 20 21 21 22 22 22 23 24 26 26 25 23 22 22 21 21 24 27 27 26 24 25 27 26 26 25 21
14 14 14 14 13 13 13 13 13 14 14 13 13 13 12 12 12 12 11 10 10 9 8 8 9 10 11 11 12 13 13 14 17 19 19 19 20 20 20 21 21 22 23 24 26 26 24 23 21 21 20 21 23 24 24 22 21 24 29 28 27 25 23
13 13 13 13 13 12 12 12 13 14 13 13 13 12 12 12 12 11 10 8 8 8 7 6 7 8 10 10 10 11 11 12 16 18 19 19 19 19 19 19 20 21 22 23 24 23 23 24 22 21 22 22 21 20 21 21 21 26 31 30 29 26 23
12 12 12 11 11 12 12 12 12 12 12 13 12 12 12 12 11 11 9 6 6 7 5 4 4 6 9 10 10 10 10 11 13 16 18 18 17 17 17 16 18 20 21 21 23 22 21 22 22 22 22 21 20 20 20 21 23 26 30 31 30 28 25
11 9 9 10 11 12 13 12 11 11 11 11 11 11 12 11 10 10 9 6 5 6 4 3 4 6 8 10 11 11 11 11 12 13 15 15 15 15 15 15 18 20 20 20 21 20 20 20 21 22 22 20 20 21 21 20 21 23 28 30 28 27 27
12 9 9 10 10 12 13 13 13 11 11 11 11 12 12 10 9 9 8 6 5 4 4 3 4 6 7 8 10 11 11 11 12 12 13 14 14 14 14 15 17 18 18 18 19 19 19 20 21 21 21 19 19 21 22 22 22 22 26 29 28 26 26
15 14 12 12 13 14 15 15 15 13 12 11 10 12 13 11 9 8 8 7 5 4 4 3 4 5 5 6 7 8 9 10 10 11 11 12 14 14 15 14 14 15 17 17 18 18 17 19 20 19 20 19 18 20 22 23 23 24 26 29 29 26 24
14 14 14 14 15 15 15 15 15 14 13 10 9 10 12 12 11 10 8 8 6 4 2 2 4 4 5 5 5 5 6 7 8 8 8 10 12 12 13 13 13 14 16 16 16 16 16 17 17 16 17 19 18 18 20 21 22 24 26 26 27 26 25
13 12 13 14 15 16 16 15 15 14 13 11 10 10 11 12 13 12 10 9 8 5 2 2 3 4 5 6 4 3 5 6 7 6 6 8 10 9 9 11 13 14 14 14 14 15 15 16 15 14 15 18 19 19 22 23 22 24 26 24 24 26 25
13 12 13 14 16 17 17 17 17 16 15 15 12 11 11 12 13 12 11 11 8 5 1 2 3 4 5 5 5 4 5 6 6 6 6 6 7 6 7 9 11 11 12 12 13 15 15 15 13 12 13 17 20 21 24 25 23 25 27 25 25 26 24
14 14 13 15 17 19 20 21 21 20 18 16 15 14 13 13 13 12 11 11 10 6 2 3 5 5 5 5 5 5 5 4 3 3 4 4 4 4 6 8 8 9 11 12 13 15 15 14 13 13 14 18 22 25 27 26 24 25 26 24 26 27 24
13 13 14 15 17 20 21 22 21 21 21 20 21 21 20 18 17 16 14 13 12 9 4 6 9 8 7 7 5 5 5 4 3 2 2 3 4 4 5 7 8 9 10 11 12 14 14 13 14 15 16 18 21 23 24 24 25 26 24 23 26 28 26
13 14 15 15 17 20 20 20 20 22 22 23 24 24 24 23 20 18 17 15 13 9 5 9 11 10 10 7 5 4 3 2 2 2 1 3 4 5 7 8 9 9 10 10 10 10 10 13 15 17 17 16 16 16 16 16 19 22 24 22 19 21 24
14 15 15 15 17 18 18 19 19 20 21 23 24 24 25 25 23 21 21 21 18 14 12 17 17 13 11 10 9 10 9 5 3 3 4 4 4 5 7 9 9 10 12 14 13 10 10 14 17 17 16 15 15 14 13 13 13 16 19 18 14 15 20
14 14 14 15 16 16 17 18 18 19 20 22 24 24 25 25 24 24 24 26 27 24 22 24 23 19 17 16 15 16 16 13 10 7 6 6 7 7 7 8 9 11 12 13 14 14 14 17 18 18 17 16 15 14 14 13 12 12 13 15 15 17 18
13 14 14 14 15 15 16 17 17 18 19 21 23 24 24 24 24 25 25 26 28 28 27 26 26 25 24 20 18 18 19 18 17 14 12 9 8 10 11 10 8 8 9 12 15 15 12 11 14 17 17 16 15 14 14 13 13 13 13 13 14 15 16
13 13 13 14 15 15 16 16 16 17 17 19 22 22 22 22 23 25 26 26 25 26 27 27 25 24 23 20 20 22 22 22 21 18 16 13 11 13 14 12 10 9 12 15 15 13 10 8 10 12 13 14 15 15 15 14 14 14 14 14 14 14 14
15 14 13 13 15 16 15 15 15 15 16 17 19 20 21 21 23 24 25 26 25 25 26 26 24 22 20 19 17 17 18 22 23 20 18 15 14 15 14 14 15 16 20 21 17 13 13 12 13 14 15 16 17 17 16 16 14 14 14 14 13 12 12
19 18 15 13 15 17 17 16 16 17 17 18 19 21 22 22 24 25 26 26 27 27 26 26 25 23 21 20 18 14 15 19 20 19 19 18 16 16 17 17 17 16 17 19 16 11 12 13 13 14 14 15 15 15 14 14 13 12 12 12 11 10 9
22 21 18 15 16 19 19 19 19 19 19 20 21 22 24 24 25 27 27 27 28 28 27 26 24 23 21 20 19 18 18 19 17 14 16 17 16 16 16 18 19 15 12 12 11 10 12 14 15 14 14 14 14 13 11 11 9 9 9 9 9 8 7
24 22 21 19 19 21 21 21 21 21 21 21 22 22 23 24 25 26 27 28 28 28 28 27 25 23 22 20 19 19 19 18 16 13 14 16 17 15 12 12 13 11 9 10 10 9 10 13 13 13 13 13 12 11 10 10 9 7 6 6 5 5 5
28 26 26 25 25 26 26 25 25 24 24 24 25 25 25 25 25 27 28 28 28 28 28 28 26 25 23 22 21 20 19 18 16 14 15 17 17 16 13 10 8 6 6 7 8 8 7 7 7 8 9 11 11 12 12 11 10 9 8 8 8 9 8

ECMWFFLT1_850_spd_114.txt.gz
Wind_Speed
17 15 15 16 17 17 17 16 18 20 17 13 13 12 12 15 16 16 18 19 20 20 21 23 23 23 24 24 24 25 26 26 27 27 27 28 28 29 29 28 28 28 26 24 23 23 22 25 28 25 23 23 22 21 20 19 18 17 18 17 16 16 15
15 14 15 16 17 18 17 15 16 19 17 12 11 13 14 16 17 18 20 21 21 21 22 24 24 24 24 25 26 26 26 27 28 27 27 27 29 30 31 30 29 28 27 25 23 24 24 24 25 26 25 24 23 23 22 21 19 18 18 17 16 16 16
13 15 17 18 19 19 18 17 16 18 18 16 14 15 15 16 18 20 22 24 24 24 24 25 25 25 25 25 26 27 27 27 27 27 27 27 28 30 31 31 31 30 28 27 25 25 25 23 22 24 27 27 26 25 24 23 21 20 19 18 17 17 17
11 15 17 19 20 21 21 20 19 19 20 19 18 17 17 16 18 20 22 23 24 25 27 27 27 27 26 26 26 27 27 27 27 27 27 27 27 29 31 30 31 29 28 28 28 26 26 26 23 22 24 27 28 27 25 23 22 21 21 20 19 18 17
12 14 16 18 19 20 21 21 20 18 18 18 17 17 16 16 17 18 19 21 22 23 26 28 29 30 28 27 27 27 27 27 27 27 27 26 25 28 30 30 29 28 28 28 28 28 28 27 24 22 21 23 25 27 25 23 22 22 23 22 20 18 17
12 13 15 16 17 18 18 19 19 18 18 18 18 17 16 16 18 19 19 21 22 23 25 26 28 30 29 28 27 27 27 28 27 26 26 25 23 25 28 29 29 28 28 28 28 29 27 25 24 21 19 20 23 26 25 23 23 23 23 23 21 19 18
12 13 15 16 17 18 18 18 19 20 20 20 19 18 17 18 19 20 20 22 24 25 26 26 26 28 29 29 28 26 25 27 26 24 24 23 21 22 25 27 28 28 27 27 29 30 27 25 24 22 21 19 20 23 23 22 24 24 24 24 22 21 19
15 15 16 17 17 18 19 19 19 20 20 20 19 18 18 19 20 20 22 24 26 26 26 26 25 26 27 27 27 25 23 22 23 21 21 21 20 20 23 24 26 27 26 26 29 32 30 27 25 23 23 21 21 21 21 21 24 25 25 25 23 23 21
16 16 17 17 17 18 18 19 19 19 20 20 20 19 19 19 20 21 23 24 25 24 24 24 23 24 25 25 24 24 22 20 20 20 20 19 19 20 22 23 24 26 26 25 28 32 33 30 26 24 25 24 23 22 20 21 24 25 25 24 24 24 22
15 15 16 15 16 17 17 18 19 19 20 20 20 20 20 20 20 21 22 22 21 20 21 21 20 20 22 21 21 22 22 20 20 19 18 18 18 19 21 22 23 24 25 25 27 29 31 28 25 25 25 24 24 24 24 24 26 27 26 25 25 25 23
13 13 14 14 16 17 18 19 20 21 22 21 20 19 19 20 20 20 19 18 16 16 16 16 16 17 18 19 19 20 20 19 19 19 18 19 19 19 20 22 22 23 24 26 27 27 28 26 25 25 26 24 25 25 25 26 28 28 27 26 25 25 24
12 12 14 15 16 17 19 19 20 19 19 17 17 17 17 18 18 17 16 16 15 14 13 12 13 14 16 18 18 18 19 20 20 20 19 19 20 20 21 22 23 24 24 25 25 25 26 26 26 26 26 25 25 25 25 26 27 27 27 28 26 25 24
10 8 8 9 10 12 13 14 14 13 13 13 14 15 16 16 16 16 15 15 14 12 11 11 11 12 14 16 17 18 19 20 21 20 19 20 20 21 22 23 24 23 23 23 23 24 26 26 26 27 26 25 25 25 26 27 25 25 27 27 26 25 23
4 2 2 4 5 7 8 8 9 9 10 12 13 14 15 14 15 15 15 14 13 12 11 11 11 12 13 15 17 17 18 20 20 20 19 20 21 21 21 22 22 23 23 23 23 24 25 26 26 26 25 25 26 27 28 27 25 24 26 26 24 25 22
3 2 1 2 3 4 6 7 7 8 10 11 12 13 14 13 13 14 14 14 13 11 11 11 11 12 13 15 16 17 18 19 19 20 21 21 21 21 22 22 21 22 23 24 24 24 25 26 26 25 24 25 26 27 28 26 23 24 26 26 25 24 22
3 2 1 1 4 5 6 7 8 8 9 10 11 12 12 12 12 13 14 13 11 11 11 10 9 9 10 12 15 16 18 18 17 19 20 21 20 20 21 21 21 22 23 23 24 24 25 25 25 25 25 24 24 25 26 26 24 24 26 27 26 25 23
2 1 1 2 4 5 7 9 10 9 9 10 11 11 12 12 11 12 13 12 10 10 10 9 8 7 8 10 12 14 17 17 15 15 17 18 17 17 18 19 20 21 23 24 24 25 26 25 24 25 24 22 23 24 24 26 25 23 25 28 28 26 25
0 2 3 4 4 5 8 10 11 11 10 10 11 11 11 11 11 11 11 11 9 9 9 8 6 6 7 8 10 12 14 15 14 14 15 14 14 15 17 18 18 19 21 23 24 25 27 25 24 25 24 21 22 22 22 25 25 22 24 28 29 28 27
1 3 4 5 6 7 8 9 10 11 11 10 10 10 10 10 10 10 10 10 9 8 8 7 5 6 6 7 9 10 11 11 11 12 13 12 13 15 15 16 16 16 18 20 21 23 25 25 25 26 24 22 21 21 21 24 25 25 25 27 29 29 29
3 5 6 7 7 8 9 10 10 11 12 11 9 9 9 9 10 10 9 9 8 8 8 7 6 6 6 6 7 8 8 7 7 8 8 10 12 14 14 15 15 15 16 18 18 19 21 23 24 25 24 23 22 21 21 23 25 26 26 26 30 31 30
8 9 8 8 8 9 10 11 12 12 13 11 9 10 11 10 10 10 8 8 9 8 8 8 6 6 6 5 5 7 7 6 7 7 6 8 11 13 14 14 15 15 16 16 17 17 18 20 22 24 24 24 22 22 22 23 25 26 26 28 32 32 32
10 10 9 8 9 10 11 12 12 12 13 12 9 10 11 11 11 10 8 8 8 8 8 7 5 5 4 4 4 5 6 6 7 7 7 7 10 13 14 14 14 15 14 15 16 17 17 19 22 23 24 23 23 23 22 23 24 25 25 29 34 34 34
11 11 10 11 12 13 14 14 13 13 13 13 11 11 11 11 11 10 8 8 8 8 7 5 4 4 3 4 4 3 2 4 6 6 6 7 9 12 13 13 15 15 13 13 14 15 16 18 20 21 22 22 23 24 23 23 25 25 27 31 36 36 35
12 12 13 15 16 17 17 16 16 15 13 13 12 12 11 11 11 10 9 8 8 7 6 5 5 5 3 3 3 2 2 2 1 2 2 4 7 9 10 12 14 14 12 11 12 13 14 15 17 18 19 20 21 22 23 25 27 27 29 33 37 36 35
13 14 16 17 18 18 18 18 18 17 17 16 16 15 14 14 13 12 10 9 8 7 7 6 7 6 4 3 4 3 3 2 1 2 1 2 4 5 7 9 11 11 11 10 10 11 13 13 15 16 17 17 17 18 22 25 27 27 28 33 38 37 34
14 15 17 18 17 18 19 20 20 21 20 21 22 23 23 21 18 15 13 12 11 9 8 8 8 8 7 6 7 6 5 4 2 0 1 2 3 2 3 6 7 8 8 8 8 10 12 14 15 16 15 16 16 17 19 22 25 25 25 29 35 35 32
14 15 16 16 16 17 19 20 21 22 22 23 25 26 25 24 22 18 16 13 11 9 11 12 12 11 10 10 9 9 7 5 3 2 1 1 2 3 4 5 5 6 6 6 7 9 11 14 16 16 15 15 17 18 19 21 23 23 23 25 29 31 31
13 13 14 14 15 17 18 19 21 21 22 23 24 24 25 26 25 23 20 17 17 17 18 19 19 19 17 15 14 13 13 11 8 4 2 1 1 3 4 4 5 5 4 5 7 9 11 14 16 15 13 13 16 18 20 20 19 17 19 22 25 28 29
13 12 12 13 15 17 18 19 20 20 20 21 21 22 23 25 26 26 24 23 25 26 25 25 26 26 24 21 20 20 21 20 17 12 7 2 1 3 3 2 2 3 3 3 5 7 9 11 12 13 13 14 16 18 19 19 14 10 12 16 19 23 25
12 12 12 13 15 17 18 18 19 19 19 19 20 21 22 24 25 26 25 25 26 27 28 27 27 26 26 24 23 23 24 25 26 24 17 8 3 5 6 5 4 3 5 6 6 6 7 9 9 10 12 13 15 16 16 16 15 13 13 14 15 19 23
12 12 13 14 16 17 18 18 19 19 18 19 20 21 22 23 24 25 25 24 25 26 27 26 23 22 23 21 21 20 20 22 24 26 24 18 14 13 10 7 4 3 5 7 7 6 6 8 10 11 12 14 15 14 13 13 13 15 16 15 16 19 21
13 13 14 14 15 17 18 19 19 19 19 20 20 20 21 22 24 25 25 24 25 25 24 23 21 19 19 17 17 15 14 15 18 19 20 19 18 16 12 7 5 6 8 10 10 9 8 8 11 16 17 17 17 16 15 13 11 12 12 12 14 17 17
13 14 15 15 17 18 20 20 20 20 21 21 21 21 22 23 25 26 25 25 24 23 22 21 19 18 17 16 16 15 15 16 16 16 17 20 20 20 17 15 16 13 11 12 13 13 12 9 10 14 14 14 16 15 14 13 12 11 12 12 13 14 14
15 16 16 16 18 20 20 20 20 20 21 22 22 22 23 24 26 27 27 26 26 25 23 22 21 19 19 19 18 18 18 20 20 19 20 22 25 25 23 21 22 19 15 14 13 11 11 10 9 9 9 9 12 12 10 9 9 8 9 10 10 11 11
17 17 17 18 20 21 20 19 19 19 20 20 21 22 24 24 25 27 27 27 28 27 25 24 23 22 21 21 21 21 22 23 22 20 21 23 25 25 23 22 21 17 15 14 12 11 12 11 10 10 10 10 10 8 6 6 5 4 5 6 6 6 6
19 20 20 21 22 22 21 19 19 19 20 20 22 23 25 25 25 26 27 27 28 27 26 25 24 23 22 22 22 22 23 23 21 19 21 24 25 24 22 20 18 15 13 12 11 11 11 11 12 11 10 9 7 5 4 4 3 3 2 2 2 2 3
21 21 22 22 22 23 23 21 20 21 21 21 22 24 25 25 25 25 26 27 26 25 24 24 23 23 22 21 22 22 22 22 20 20 21 24 24 22 21 19 17 15 14 13 12 11 11 10 9 7 5 5 5 5 5 6 6 6 6 5 4 3 3

ECMWFFLT1_850_spd_117.txt.gz
Wind_Speed
16 16 15 14 14 15 17 16 16 16 16 17 18 17 18 18 19 20 21 22 22 22 22 23 24 24 24 24 24 24 24 23 23 25 25 24 24 26 27 28 27 25 26 26 25 22 20 22 24 27 28 28 29 28 25 23 20 19 17 17 17 17 17
14 14 14 14 14 15 17 18 18 18 18 18 19 19 19 19 19 20 22 23 23 23 24 25 26 26 27 27 27 26 26 26 25 24 25 25 26 26 27 28 27 28 28 27 26 24 24 23 23 26 29 29 29 27 26 24 22 20 19 17 17 17 18
12 12 14 15 16 17 18 20 21 22 22 21 22 23 22 22 21 22 23 23 23 23 24 25 26 27 28 29 29 29 28 28 28 26 25 26 27 26 27 28 28 29 29 28 28 27 27 26 24 25 28 30 30 28 27 26 23 23 21 19 19 19 20
10 11 13 14 16 17 18 20 21 22 22 22 23 24 24 23 22 22 23 23 24 24 24 24 25 26 27 28 29 30 31 31 30 29 27 27 27 27 28 30 30 30 29 28 28 29 30 29 27 26 26 28 30 29 28 26 25 25 23 22 22 21 21
11 12 14 15 17 18 19 19 19 20 20 20 22 24 24 23 23 23 23 23 24 25 25 24 25 25 27 28 29 30 32 32 32 30 29 29 28 28 28 30 31 31 30 27 26 27 30 31 29 28 26 25 28 30 28 26 26 26 25 24 23 23 22
13 14 16 18 19 20 21 20 19 19 20 21 22 24 24 24 24 23 22 23 23 24 25 26 26 27 28 28 29 30 31 32 32 31 31 31 29 28 29 29 29 30 28 25 24 26 28 30 30 29 27 24 25 28 28 27 27 26 26 25 24 23 23
14 16 18 19 20 21 22 21 21 21 21 22 22 23 24 23 23 23 22 23 24 25 26 27 29 29 29 28 28 28 29 29 29 29 30 30 28 27 28 28 28 29 26 22 22 24 26 29 31 30 28 25 23 24 25 26 26 26 26 26 25 24 23
17 20 21 21 21 22 22 22 22 22 22 21 22 23 23 23 23 23 23 24 26 27 28 29 30 30 28 27 26 26 27 27 27 28 28 28 27 26 27 27 27 26 21 18 20 22 24 27 29 29 29 27 23 22 24 25 26 27 26 25 26 26 25
20 22 22 22 22 22 22 23 22 22 22 21 22 23 24 25 25 24 25 26 26 27 27 27 27 27 25 23 23 23 24 25 25 25 25 26 26 25 25 25 24 22 17 16 18 19 21 25 27 28 29 29 26 22 22 24 25 27 28 26 26 27 26
22 22 22 22 22 22 22 23 23 23 23 23 24 25 25 24 24 24 25 25 25 25 25 24 24 23 21 20 19 20 21 21 21 21 22 24 24 24 24 21 20 19 15 14 16 17 19 22 24 27 28 29 26 23 22 23 24 26 28 28 28 28 27
21 21 21 21 22 22 22 23 24 24 23 23 22 21 20 20 21 22 23 23 22 22 22 21 20 20 19 18 18 18 18 16 17 19 21 23 22 23 22 19 18 18 16 14 15 16 17 19 20 25 27 26 25 24 23 23 24 25 27 28 28 27 28
19 19 19 19 20 20 20 21 21 20 19 17 17 16 17 19 20 21 21 21 21 20 21 20 19 18 18 18 17 17 16 15 16 18 20 20 20 22 21 18 18 19 17 15 15 15 17 19 19 22 26 26 25 25 26 25 24 23 24 27 27 26 27
16 16 16 16 16 16 16 16 16 15 14 14 15 16 18 20 21 21 20 20 19 19 20 19 19 18 18 18 17 16 15 14 16 18 18 19 19 20 20 19 19 19 18 17 16 17 17 19 20 21 23 25 25 25 26 25 24 22 21 23 25 26 26
13 13 13 13 14 14 13 13 14 14 14 15 16 17 18 20 21 20 19 19 19 18 18 18 18 18 18 17 17 16 15 14 15 16 17 18 19 21 21 21 19 18 18 18 17 18 18 18 19 20 21 23 24 24 25 26 25 23 21 21 23 25 25
11 11 11 12 13 12 12 12 13 14 15 16 17 17 18 19 19 18 17 17 18 18 17 17 17 17 17 16 15 15 15 14 15 16 16 17 19 21 22 21 19 17 17 18 17 17 18 17 19 19 19 21 22 23 24 25 25 24 23 21 22 25 26
10 11 12 12 11 11 11 12 13 15 16 16 16 16 17 18 19 17 16 15 16 16 16 16 16 16 15 13 12 13 13 13 13 14 15 16 18 20 21 20 18 17 17 17 17 17 17 17 18 18 19 21 22 23 23 24 23 23 23 21 22 26 27
8 10 11 10 9 9 10 12 13 15 15 15 14 14 15 16 16 16 15 14 14 14 14 14 15 14 13 11 10 10 10 11 11 11 12 14 16 18 19 19 19 17 17 17 17 17 17 17 17 17 18 19 21 22 22 23 22 22 23 21 22 26 27
8 8 8 7 7 8 10 12 13 15 14 13 13 12 13 14 14 14 14 14 14 13 13 13 13 12 12 10 9 9 9 9 9 9 9 10 11 12 14 16 17 16 16 17 16 16 16 16 17 17 17 18 20 21 21 23 22 22 23 22 22 26 27
5 5 5 5 7 9 11 12 13 14 13 12 12 12 12 12 13 14 14 14 14 13 12 12 12 11 10 10 9 8 8 8 8 8 7 7 8 10 11 12 12 13 13 13 13 14 14 16 17 17 17 18 20 21 22 22 22 23 24 24 23 26 29
1 2 3 6 8 10 11 12 12 12 12 12 11 12 12 11 12 13 14 13 13 13 12 12 12 10 9 9 8 8 7 6 6 6 6 6 7 8 9 10 11 11 11 10 11 12 14 16 18 19 19 19 20 22 22 21 22 24 25 26 26 27 28
2 1 4 6 8 9 10 11 11 11 12 12 12 12 12 11 11 12 13 12 12 12 12 11 10 8 8 8 8 8 7 6 5 5 5 6 7 8 9 10 11 12 11 10 10 11 12 15 17 19 19 20 20 21 21 20 22 24 26 28 27 27 28
3 3 4 6 8 10 12 13 13 13 13 12 12 12 11 10 10 11 11 10 10 10 11 10 8 8 8 9 9 9 8 7 6 6 6 6 7 8 8 10 11 11 11 11 10 10 11 13 15 16 17 19 20 21 20 20 22 24 27 28 27 27 28
4 4 7 9 11 13 13 13 13 13 14 14 12 10 9 8 8 8 9 9 8 9 11 11 11 11 11 11 11 10 9 9 7 6 6 6 6 6 7 9 10 10 10 10 10 11 11 13 13 14 15 16 17 18 19 20 22 23 26 28 28 28 29
6 8 10 12 13 13 13 13 14 16 18 19 17 13 10 8 7 8 10 10 11 12 14 15 15 14 13 12 12 11 10 10 8 7 7 7 6 6 6 7 8 8 7 7 7 9 12 13 12 13 15 15 14 15 17 18 20 22 25 27 29 29 30
9 11 12 13 13 13 13 13 15 17 20 22 22 20 16 14 12 13 13 13 13 14 15 16 16 15 14 14 13 12 11 10 9 8 8 8 7 6 6 6 6 5 4 4 6 8 10 10 10 11 13 13 13 14 15 17 18 20 22 25 28 29 32
12 12 12 12 13 13 13 14 16 18 19 20 22 24 22 20 17 15 14 13 15 16 17 17 17 16 16 15 13 12 11 10 9 8 8 7 7 6 6 6 5 4 2 3 6 7 8 8 9 10 11 12 13 15 16 17 18 19 20 22 25 28 31
11 11 11 12 13 13 14 14 15 16 16 17 20 23 24 23 22 20 18 18 20 22 21 21 21 21 21 20 19 17 15 14 12 10 8 7 7 7 8 8 8 6 5 4 5 7 7 7 8 10 11 12 13 14 15 16 17 18 20 21 23 26 28
9 10 11 12 12 13 13 13 14 14 15 16 18 20 21 22 23 23 23 23 23 25 24 22 22 22 22 22 22 21 21 21 21 20 17 12 10 8 9 10 9 9 8 6 5 5 5 7 8 9 10 10 11 11 13 14 14 16 18 20 21 22 25
8 10 12 12 12 13 12 13 13 13 13 15 17 18 19 21 22 23 23 23 23 24 24 21 20 20 19 18 18 18 19 20 22 24 24 19 14 11 12 13 12 12 10 8 7 6 4 5 6 7 9 9 9 10 10 10 11 12 13 15 16 19 23
9 13 13 12 12 12 12 12 12 12 12 13 15 17 19 20 21 21 21 22 22 23 22 21 20 19 19 18 17 17 18 18 20 23 24 22 18 15 16 17 17 15 13 12 12 11 10 7 2 4 7 9 9 8 6 6 6 8 9 10 12 15 19
11 13 13 12 12 12 12 12 12 11 10 11 15 18 18 19 19 19 20 20 20 21 21 21 20 19 19 19 20 20 21 21 22 25 27 27 26 25 26 27 27 24 21 19 16 15 14 12 4 7 8 9 10 10 11 11 10 10 11 11 11 11 13
11 13 13 12 12 12 13 13 12 12 11 12 15 17 17 18 19 19 20 20 20 20 21 22 21 21 21 21 21 22 23 25 26 28 30 31 30 30 30 30 29 26 24 22 20 19 19 17 13 14 12 10 12 14 14 12 10 11 12 12 12 10 9
11 14 14 13 13 13 14 13 13 13 13 14 15 15 16 16 18 19 20 20 21 21 22 22 22 21 21 21 21 21 21 24 26 27 27 28 29 29 29 28 25 22 21 22 22 21 20 19 18 18 18 17 19 18 14 11 10 9 9 10 11 10 9
13 15 15 13 13 14 14 14 14 15 16 16 16 16 17 17 18 20 21 21 22 22 22 21 21 20 20 20 20 20 20 23 23 23 24 26 26 26 26 24 22 19 18 20 20 20 20 19 19 20 21 22 21 17 14 14 13 11 9 9 9 8 7
15 16 15 13 13 14 14 13 14 15 16 16 16 17 18 19 19 20 21 21 21 21 21 20 20 19 19 19 19 20 21 22 21 21 22 24 25 25 24 22 21 18 17 17 17 18 19 18 19 20 20 19 17 15 15 16 14 13 13 12 10 10 9
17 16 15 13 13 14 14 13 13 14 15 15 16 18 19 19 19 20 21 21 21 20 21 21 21 20 20 20 20 20 21 21 20 20 22 23 23 23 22 21 20 18 16 16 16 17 17 17 18 18 17 16 15 15 15 15 14 15 15 14 13 13 13
16 15 14 13 13 14 15 14 14 14 15 15 17 19 20 20 20 21 22 23 23 23 23 23 23 23 23 23 23 22 22 21 20 20 22 22 21 20 19 18 18 17 16 16 16 16 17 17 17 17 16 15 14 14 14 14 14 14 14 14 14 14 14

ECMWFFLT1_850_spd_123.txt.gz
Wind_Speed
4 4 3 3 4 4 5 5 6 7 8 9 10 11 13 13 14 15 15 16 17 17 18 18 18 18 18 18 18 17 17 18 18 19 20 20 20 22 22 21 21 20 20 21 20 19 20 19 19 19 19 19 20 23 26 30 31 31 33 32 28 25 23
3 3 3 4 4 5 5 6 7 8 9 10 12 13 14 15 16 16 17 18 18 19 19 18 19 19 20 20 20 19 19 18 18 19 20 22 22 22 23 24 24 23 22 22 22 21 22 22 22 22 21 20 21 21 22 26 29 31 32 30 29 27 25
3 3 4 5 6 6 8 9 10 12 13 13 14 14 15 15 16 16 17 18 19 19 18 18 19 19 20 21 21 21 21 21 21 20 21 23 23 23 24 25 26 24 21 22 23 22 22 22 23 25 24 23 23 23 22 23 26 28 29 29 29 29 26
4 5 6 6 7 8 9 11 14 15 15 15 15 14 14 14 15 16 17 18 18 19 19 19 20 20 21 21 22 23 23 24 23 22 22 23 24 25 24 25 27 25 24 26 25 23 24 24 24 25 25 24 24 25 24 24 25 25 26 29 30 31 29
5 6 7 8 8 10 12 15 17 17 16 16 15 14 13 13 14 16 17 18 19 20 20 21 21 20 20 21 22 23 23 23 22 21 22 23 24 26 26 26 27 27 28 28 25 23 23 23 24 26 26 24 24 24 24 25 25 23 25 28 30 32 32
7 8 9 10 12 13 16 17 17 17 16 15 15 14 14 14 15 17 18 19 20 20 20 19 19 18 19 20 21 22 21 20 19 19 21 21 22 24 26 27 27 29 29 27 25 25 24 23 25 27 27 25 25 24 24 25 25 24 25 26 27 31 33
8 9 11 13 14 16 17 17 16 16 16 15 15 15 15 15 16 17 18 18 19 19 18 18 18 18 19 20 21 21 20 19 18 18 19 20 20 21 22 23 24 27 28 26 25 25 24 25 26 27 27 26 26 24 24 25 24 24 25 25 25 29 33
9 11 13 15 17 18 18 17 16 15 15 15 15 15 15 15 16 16 17 17 17 18 18 18 18 19 19 19 20 20 19 19 18 17 18 19 20 20 18 19 21 22 22 23 23 22 22 23 24 25 26 27 27 24 23 26 26 24 25 25 25 28 32
12 14 16 18 19 20 19 17 15 15 15 15 15 15 15 15 15 16 16 17 18 18 19 18 18 18 18 19 20 19 19 18 18 18 17 18 19 18 17 17 18 20 20 20 20 20 20 20 20 20 22 25 27 25 24 26 28 28 24 22 23 26 31
15 17 18 20 21 21 19 16 14 14 15 15 15 14 14 15 16 17 17 18 18 18 18 17 17 17 17 18 19 19 18 17 17 18 17 17 17 16 16 16 16 18 18 19 19 19 19 19 19 18 19 22 25 26 26 26 28 29 24 22 23 25 30
17 19 21 22 22 20 17 14 13 14 14 14 14 14 14 15 16 17 17 17 17 16 16 16 16 16 16 17 17 17 17 16 15 18 17 15 14 14 15 15 15 16 16 16 17 17 17 18 17 16 17 21 23 25 28 27 26 27 26 24 22 23 28
21 22 23 23 21 17 14 12 12 12 13 13 13 14 15 16 16 17 16 16 15 14 15 14 14 15 15 15 15 15 16 15 14 17 17 13 12 13 13 14 15 15 15 15 14 14 15 16 16 16 15 18 19 21 26 28 26 24 26 25 21 21 25
23 23 23 20 17 13 12 11 11 12 12 13 14 14 15 15 15 16 15 15 14 14 14 13 13 14 14 14 14 13 14 14 13 14 15 12 11 12 12 13 14 14 13 13 13 12 13 14 16 16 15 16 17 17 21 27 27 24 24 24 21 19 22
21 21 19 16 12 11 10 10 10 11 12 13 14 15 15 14 14 14 14 14 14 14 13 13 13 13 13 13 13 12 12 13 12 12 12 12 11 11 12 13 14 13 12 12 13 12 13 13 14 16 15 15 18 18 18 22 25 25 25 23 19 16 17
18 17 14 10 8 8 8 9 10 11 12 14 15 15 14 13 13 13 12 12 13 13 13 12 12 12 13 13 13 11 11 11 11 11 10 10 11 11 12 13 14 13 12 12 12 12 12 13 13 15 16 16 18 19 16 18 23 28 30 26 19 15 15
14 10 6 5 5 6 7 9 10 12 12 13 13 13 12 12 11 11 11 11 11 11 11 12 11 11 11 12 12 11 10 10 10 11 10 10 11 10 10 11 11 11 11 11 11 11 11 11 12 13 15 16 17 17 15 16 22 28 29 25 20 17 15
8 5 3 4 5 6 8 9 10 10 11 11 11 11 11 10 10 9 9 10 10 10 11 11 10 9 9 10 11 11 10 10 9 10 10 10 11 10 9 10 9 9 9 10 10 9 9 10 11 12 13 14 14 15 14 15 19 22 23 21 19 18 16
3 1 2 3 5 6 7 7 8 9 9 10 10 10 10 8 8 8 9 11 11 11 11 10 9 8 9 9 10 11 11 10 10 10 10 10 10 10 9 8 8 8 8 8 7 8 8 9 10 10 11 11 11 12 13 14 17 20 21 20 18 17 17
2 3 2 3 4 5 6 7 8 9 9 10 10 10 9 8 8 10 12 12 11 11 11 10 9 9 9 9 10 10 10 10 10 10 11 11 10 10 9 8 7 7 7 7 7 7 7 7 8 9 10 11 11 11 12 12 14 19 21 21 19 18 18
4 3 3 3 4 5 7 8 9 9 10 10 11 11 11 11 13 13 13 12 11 10 9 9 10 10 10 10 10 10 10 10 10 10 10 10 11 11 10 9 9 8 7 7 6 6 7 7 7 8 8 9 10 11 11 11 12 16 19 21 22 21 18
5 4 4 5 6 7 8 9 10 10 11 12 12 13 14 15 15 13 13 14 13 11 10 10 12 13 12 12 11 11 10 9 9 9 9 9 9 10 10 10 9 9 8 8 7 7 7 7 7 7 8 8 10 10 10 11 12 14 16 18 21 21 19
6 6 6 6 7 8 8 10 11 11 13 15 15 16 16 16 14 13 14 14 14 14 14 15 17 17 16 15 14 12 12 10 9 9 9 8 8 9 9 9 10 10 10 9 9 9 8 7 7 7 7 8 8 8 9 11 12 12 14 16 18 19 18
7 7 7 7 7 8 9 11 12 13 15 16 17 17 15 14 14 14 15 16 16 17 18 18 19 19 18 18 16 15 13 12 11 10 9 8 8 9 9 9 10 10 10 9 9 9 9 8 7 7 7 7 6 6 8 11 13 12 13 16 18 19 18
9 8 7 7 8 9 10 12 14 15 16 16 15 14 13 13 14 16 16 16 17 18 19 19 19 18 17 17 16 15 14 12 12 12 11 11 10 10 10 10 10 10 10 10 10 9 9 8 8 8 8 7 6 7 8 11 14 16 15 16 18 19 18
9 8 8 8 9 10 11 12 14 14 15 14 13 13 14 15 16 17 17 17 19 21 22 21 20 19 17 16 15 15 15 14 15 15 16 16 15 13 13 13 13 13 13 13 13 13 12 10 9 9 8 7 7 7 8 10 13 15 16 16 16 15 16
10 9 9 9 10 10 10 11 13 14 15 15 15 16 17 17 17 17 18 19 22 23 24 24 23 21 19 18 16 16 16 17 19 20 21 21 20 19 18 18 18 18 19 18 18 19 18 15 12 10 9 8 7 7 7 9 11 12 13 14 15 15 15
10 9 10 10 10 10 10 10 12 14 16 16 16 16 16 16 17 18 20 22 23 25 26 25 24 22 20 19 18 18 19 21 23 25 27 27 27 26 25 25 26 26 25 24 24 23 21 18 15 13 11 9 8 7 6 8 8 8 7 8 11 14 16
11 10 10 11 11 11 11 11 12 13 15 15 15 15 16 17 18 20 21 22 23 25 26 24 23 22 20 19 18 19 21 24 26 28 29 30 30 31 31 32 32 31 31 30 28 26 22 19 17 16 18 18 17 15 15 16 15 13 10 7 6 8 11
11 11 11 11 12 12 12 12 12 12 13 14 15 15 16 18 19 20 20 21 22 24 24 22 21 20 19 18 18 19 21 24 26 29 30 31 32 32 32 33 32 31 31 31 30 29 27 25 23 24 25 27 26 25 25 24 23 20 17 14 11 8 6
12 11 11 12 12 12 12 11 11 11 11 12 13 14 15 16 17 18 19 19 20 22 22 21 20 19 18 18 18 19 21 24 27 29 31 31 31 31 31 31 30 30 30 30 29 29 30 30 30 30 31 32 31 31 30 27 25 24 22 20 18 15 13
12 11 11 11 12 13 12 12 11 11 10 11 13 14 14 15 16 17 18 18 19 21 21 21 20 20 19 18 18 19 20 22 26 28 29 29 29 29 29 28 28 28 28 27 26 26 27 28 29 30 31 31 31 31 28 25 25 25 24 23 22 20 20
12 11 11 11 12 13 13 12 11 11 11 13 14 14 14 14 15 16 17 18 18 19 20 20 19 18 18 17 18 18 19 21 23 25 26 26 27 27 26 27 27 26 25 24 23 24 24 25 26 28 28 28 29 29 26 23 23 24 25 26 26 25 25
12 11 11 12 12 13 13 12 11 11 13 14 14 13 13 13 14 15 15 16 16 17 18 17 17 16 16 16 16 17 18 19 21 22 23 24 25 24 24 25 25 24 22 21 21 22 22 24 25 26 27 27 27 26 23 22 22 23 24 26 27 28 28
13 13 13 13 13 14 14 13 13 13 13 13 12 12 12 12 13 14 14 15 15 16 17 16 16 15 15 15 15 16 16 18 20 20 20 21 23 23 23 23 23 22 20 19 19 20 21 22 24 26 27 27 25 22 20 20 20 20 22 24 25 26 27
14 15 15 14 14 15 15 14 13 13 12 11 11 11 12 12 13 15 16 16 17 18 19 18 17 17 17 17 17 17 17 18 19 18 18 21 23 23 22 22 22 21 19 19 20 21 21 22 23 25 25 24 22 21 20 21 21 21 23 24 24 25 26
16 16 15 14 14 14 14 13 12 11 10 9 10 11 12 13 14 16 18 20 21 22 22 22 22 22 22 22 22 21 21 21 20 20 21 23 23 23 22 22 22 21 21 22 23 24 24 25 25 24 24 23 23 24 24 25 27 28 28 29 29 30 30
16 16 15 13 12 12 12 11 10 10 9 9 10 12 13 15 16 18 21 23 24 24 25 25 25 24 25 24 25 24 24 24 23 23 25 26 24 23 23 22 22 22 23 24 26 27 28 28 27 26 25 25 26 27 29 30 31 32 33 33 34 34 34